Observation data for Stamford on 03/12/2018      Previous  Date       Current Mesonet Observations  Soil Data  Daily Summary Page  Observations in Plain Language
KST2 120500Z 03010KT 08/M03 A3034 RMK A01 T00751026  RH  049%=      5-min Rain = 0
KST2 120501Z 03009KT 07/M03 A3034 RMK A01 T00741026  RH  049%=      5-min Rain = 0
KST2 120502Z 03009KT 07/M03 A3034 RMK A01 T00731026  RH  049%=      5-min Rain = 0
KST2 120503Z 03009KT 07/M03 A3034 RMK A01 T00731026  RH  049%=      5-min Rain = 0
KST2 120504Z 03008KT 07/M03 A3034 RMK A01 T00721026  RH  050%=      5-min Rain = 0
KST2 120505Z 03008KT 07/M03 A3034 RMK A01 T00711026  RH  050%=      5-min Rain = 0
KST2 120506Z 03008KT 07/M03 A3034 RMK A01 T00711026  RH  050%=      5-min Rain = 0
KST2 120507Z 04008KT 07/M03 A3034 RMK A01 T00701026  RH  050%=      5-min Rain = 0
KST2 120508Z 04008KT 07/M03 A3034 RMK A01 T00691026  RH  050%=      5-min Rain = 0
KST2 120509Z 04008KT 07/M03 A3034 RMK A01 T00691026  RH  051%=      5-min Rain = 0
KST2 120510Z 04007KT 07/M03 A3034 RMK A01 T00691026  RH  051%=      5-min Rain = 0
KST2 120511Z 03007KT 07/M03 A3034 RMK A01 T00681026  RH  051%=      5-min Rain = 0
KST2 120512Z 04007KT 07/M03 A3034 RMK A01 T00681026  RH  051%=      5-min Rain = 0
KST2 120513Z 04007KT 07/M03 A3034 RMK A01 T00671026  RH  051%=      5-min Rain = 0
KST2 120514Z 04007KT 07/M03 A3034 RMK A01 T00671027  RH  051%=      5-min Rain = 0
KST2 120515Z 04007KT 07/M03 A3034 RMK A01 T00671026  RH  052%=      5-min Rain = 0
KST2 120516Z 04007KT 07/M03 A3034 RMK A01 T00661027  RH  052%=      5-min Rain = 0
KST2 120517Z 04007KT 07/M03 A3034 RMK A01 T00661027  RH  052%=      5-min Rain = 0
KST2 120518Z 04006KT 07/M03 A3034 RMK A01 T00651027  RH  052%=      5-min Rain = 0
KST2 120519Z 04006KT 07/M03 A3034 RMK A01 T00651027  RH  052%=      5-min Rain = 0
KST2 120520Z 04006KT 07/M03 A3034 RMK A01 T00651026  RH  052%=      5-min Rain = 0
KST2 120521Z 03006KT 06/M03 A3034 RMK A01 T00641027  RH  052%=      5-min Rain = 0
KST2 120522Z 03006KT 06/M03 A3034 RMK A01 T00631028  RH  052%=      5-min Rain = 0
KST2 120523Z 03006KT 06/M03 A3034 RMK A01 T00621028  RH  053%=      5-min Rain = 0
KST2 120524Z 03006KT 06/M03 A3034 RMK A01 T00621028  RH  053%=      5-min Rain = 0
KST2 120525Z 04006KT 06/M03 A3034 RMK A01 T00611028  RH  053%=      5-min Rain = 0
KST2 120526Z 04006KT 06/M03 A3034 RMK A01 T00611028  RH  053%=      5-min Rain = 0
KST2 120527Z 04006KT 06/M03 A3034 RMK A01 T00601028  RH  053%=      5-min Rain = 0
KST2 120528Z 04006KT 06/M03 A3034 RMK A01 T00591028  RH  053%=      5-min Rain = 0
KST2 120529Z 04006KT 06/M03 A3034 RMK A01 T00581028  RH  054%=      5-min Rain = 0
KST2 120530Z 04006KT 06/M03 A3034 RMK A01 T00581028  RH  054%=      5-min Rain = 0
KST2 120531Z 04006KT 06/M03 A3034 RMK A01 T00571028  RH  054%=      5-min Rain = 0
KST2 120532Z 04006KT 06/M03 A3034 RMK A01 T00571029  RH  054%=      5-min Rain = 0
KST2 120533Z 04006KT 06/M03 A3034 RMK A01 T00561029  RH  054%=      5-min Rain = 0
KST2 120534Z 04005KT 06/M03 A3034 RMK A01 T00551029  RH  054%=      5-min Rain = 0
KST2 120535Z 04005KT 06/M03 A3034 RMK A01 T00551029  RH  055%=      5-min Rain = 0
KST2 120536Z 04005KT 06/M03 A3034 RMK A01 T00551029  RH  055%=      5-min Rain = 0
KST2 120537Z 04005KT 05/M03 A3034 RMK A01 T00541029  RH  055%=      5-min Rain = 0
KST2 120538Z 04005KT 05/M03 A3034 RMK A01 T00541029  RH  055%=      5-min Rain = 0
KST2 120539Z 04005KT 05/M03 A3034 RMK A01 T00541029  RH  055%=      5-min Rain = 0
KST2 120540Z 04005KT 05/M03 A3034 RMK A01 T00541030  RH  055%=      5-min Rain = 0
KST2 120541Z 04005KT 05/M03 A3034 RMK A01 T00531030  RH  055%=      5-min Rain = 0
KST2 120542Z 04005KT 05/M03 A3034 RMK A01 T00531030  RH  055%=      5-min Rain = 0
KST2 120543Z 04005KT 05/M03 A3034 RMK A01 T00521030  RH  055%=      5-min Rain = 0
KST2 120544Z 04005KT 05/M03 A3034 RMK A01 T00521030  RH  055%=      5-min Rain = 0
KST2 120545Z 04005KT 05/M03 A3034 RMK A01 T00511030  RH  055%=      5-min Rain = 0
KST2 120546Z 04005KT 05/M03 A3034 RMK A01 T00511031  RH  055%=      5-min Rain = 0
KST2 120547Z 04005KT 05/M03 A3034 RMK A01 T00511031  RH  055%=      5-min Rain = 0
KST2 120548Z 04004KT 05/M03 A3034 RMK A01 T00511031  RH  055%=      5-min Rain = 0
KST2 120549Z 04004KT 05/M03 A3035 RMK A01 T00511031  RH  056%=      5-min Rain = 0
KST2 120550Z 04004KT 05/M03 A3035 RMK A01 T00511031  RH  056%=      5-min Rain = 0
KST2 120551Z 04004KT 05/M03 A3035 RMK A01 T00501031  RH  056%=      5-min Rain = 0
KST2 120552Z 04004KT 05/M03 A3035 RMK A01 T00501031  RH  056%=      5-min Rain = 0
KST2 120553Z 05004KT 05/M03 A3035 RMK A01 T00501031  RH  056%=      5-min Rain = 0
KST2 120554Z 05004KT 05/M03 A3035 RMK A01 T00501031  RH  056%=      5-min Rain = 0
KST2 120555Z 05004KT 05/M03 A3035 RMK A01 T00501031  RH  056%=      5-min Rain = 0
KST2 120556Z 04004KT 05/M03 A3035 RMK A01 T00501031  RH  056%=      5-min Rain = 0
KST2 120557Z 04004KT 05/M03 A3035 RMK A01 T00501031  RH  056%=      5-min Rain = 0
KST2 120558Z 04004KT 05/M03 A3035 RMK A01 T00501031  RH  056%=      5-min Rain = 0
KST2 120559Z 04004KT 05/M03 A3035 RMK A01 T00501031  RH  056%=      5-min Rain = 0
KST2 120600Z 04004KT 05/M03 A3035 RMK A01 T00501030  RH  056%=      5-min Rain = 0
KST2 120601Z 04004KT 05/M03 A3035 RMK A01 T00491030  RH  056%=      5-min Rain = 0
KST2 120602Z 04004KT 05/M03 A3035 RMK A01 T00491030  RH  056%=      5-min Rain = 0
KST2 120603Z 04003KT 05/M03 A3035 RMK A01 T00491030  RH  056%=      5-min Rain = 0
KST2 120604Z 04003KT 05/M03 A3035 RMK A01 T00491030  RH  056%=      5-min Rain = 0
KST2 120605Z 05002KT 05/M03 A3035 RMK A01 T00491031  RH  056%=      5-min Rain = 0
KST2 120606Z 05002KT 05/M03 A3035 RMK A01 T00481034  RH  055%=      5-min Rain = 0
KST2 120607Z 06002KT 05/M04 A3035 RMK A01 T00481035  RH  055%=      5-min Rain = 0
KST2 120608Z 06001KT 05/M03 A3035 RMK A01 T00471034  RH  056%=      5-min Rain = 0
KST2 120609Z 06001KT 05/M04 A3035 RMK A01 T00471035  RH  055%=      5-min Rain = 0
KST2 120610Z 06001KT 05/M04 A3035 RMK A01 T00481035  RH  055%=      5-min Rain = 0
KST2 120611Z 05000KT 05/M04 A3035 RMK A01 T00481036  RH  055%=      5-min Rain = 0
KST2 120612Z 04000KT 05/M04 A3035 RMK A01 T00491035  RH  055%=      5-min Rain = 0
KST2 120613Z 05001KT 05/M04 A3035 RMK A01 T00481035  RH  055%=      5-min Rain = 0
KST2 120614Z 04001KT 05/M04 A3035 RMK A01 T00481035  RH  055%=      5-min Rain = 0
KST2 120615Z 03000KT 05/M04 A3035 RMK A01 T00481037  RH  054%=      5-min Rain = 0
KST2 120616Z 03001KT 05/M04 A3035 RMK A01 T00481038  RH  054%=      5-min Rain = 0
KST2 120617Z 05001KT 05/M04 A3036 RMK A01 T00461038  RH  054%=      5-min Rain = 0
KST2 120618Z 05001KT 05/M03 A3036 RMK A01 T00461034  RH  056%=      5-min Rain = 0
KST2 120619Z 04000KT 05/M03 A3036 RMK A01 T00471034  RH  056%=      5-min Rain = 0
KST2 120620Z 06001KT 05/M04 A3036 RMK A01 T00471035  RH  055%=      5-min Rain = 0
KST2 120621Z 07001KT 05/M04 A3036 RMK A01 T00471035  RH  055%=      5-min Rain = 0
KST2 120622Z 05001KT 05/M04 A3036 RMK A01 T00481035  RH  055%=      5-min Rain = 0
KST2 120623Z 05002KT 05/M04 A3036 RMK A01 T00471035  RH  055%=      5-min Rain = 0
KST2 120624Z 05002KT 05/M04 A3036 RMK A01 T00471035  RH  055%=      5-min Rain = 0
KST2 120625Z 05003KT 05/M04 A3036 RMK A01 T00471035  RH  055%=      5-min Rain = 0
KST2 120626Z 05003KT 05/M03 A3036 RMK A01 T00481034  RH  056%=      5-min Rain = 0
KST2 120627Z 04004KT 05/M03 A3035 RMK A01 T00491033  RH  055%=      5-min Rain = 0
KST2 120628Z 04004KT 05/M03 A3035 RMK A01 T00501033  RH  055%=      5-min Rain = 0
KST2 120629Z 04004KT 05/M03 A3035 RMK A01 T00511032  RH  055%=      5-min Rain = 0
KST2 120630Z 04004KT 05/M03 A3035 RMK A01 T00511032  RH  055%=      5-min Rain = 0
KST2 120631Z 04004KT 05/M03 A3036 RMK A01 T00511032  RH  055%=      5-min Rain = 0
KST2 120632Z 03004KT 05/M03 A3036 RMK A01 T00511032  RH  055%=      5-min Rain = 0
KST2 120633Z 03004KT 05/M03 A3036 RMK A01 T00521031  RH  055%=      5-min Rain = 0
KST2 120634Z 03004KT 05/M03 A3036 RMK A01 T00521031  RH  055%=      5-min Rain = 0
KST2 120635Z 03004KT 05/M03 A3036 RMK A01 T00521030  RH  055%=      5-min Rain = 0
KST2 120636Z 03003KT 05/M03 A3036 RMK A01 T00521030  RH  055%=      5-min Rain = 0
KST2 120637Z 03003KT 05/M03 A3036 RMK A01 T00531030  RH  055%=      5-min Rain = 0
KST2 120638Z 02003KT 05/M03 A3036 RMK A01 T00531030  RH  055%=      5-min Rain = 0
KST2 120639Z 02003KT 05/M03 A3036 RMK A01 T00531029  RH  055%=      5-min Rain = 0
KST2 120640Z 02004KT 05/M03 A3036 RMK A01 T00531029  RH  055%=      5-min Rain = 0
KST2 120641Z 02004KT 05/M03 A3036 RMK A01 T00531029  RH  056%=      5-min Rain = 0
KST2 120642Z 02004KT 05/M03 A3036 RMK A01 T00531029  RH  055%=      5-min Rain = 0
KST2 120643Z 02004KT 05/M03 A3036 RMK A01 T00531029  RH  055%=      5-min Rain = 0
KST2 120644Z 02004KT 05/M03 A3036 RMK A01 T00531029  RH  055%=      5-min Rain = 0
KST2 120645Z 02004KT 05/M03 A3036 RMK A01 T00531029  RH  056%=      5-min Rain = 0
KST2 120646Z 01004KT 05/M03 A3036 RMK A01 T00531029  RH  056%=      5-min Rain = 0
KST2 120647Z 01003KT 05/M03 A3036 RMK A01 T00531028  RH  056%=      5-min Rain = 0
KST2 120648Z 01003KT 05/M03 A3036 RMK A01 T00531028  RH  056%=      5-min Rain = 0
KST2 120649Z 01003KT 05/M03 A3036 RMK A01 T00531029  RH  056%=      5-min Rain = 0
KST2 120650Z 02003KT 05/M03 A3036 RMK A01 T00521028  RH  056%=      5-min Rain = 0
KST2 120651Z 02003KT 05/M03 A3036 RMK A01 T00521028  RH  056%=      5-min Rain = 0
KST2 120652Z 02003KT 05/M03 A3036 RMK A01 T00521028  RH  056%=      5-min Rain = 0
KST2 120653Z 02003KT 05/M03 A3036 RMK A01 T00511028  RH  056%=      5-min Rain = 0
KST2 120654Z 02003KT 05/M03 A3036 RMK A01 T00511028  RH  056%=      5-min Rain = 0
KST2 120655Z 02004KT 05/M03 A3036 RMK A01 T00511028  RH  056%=      5-min Rain = 0
KST2 120656Z 03004KT 05/M03 A3036 RMK A01 T00511029  RH  057%=      5-min Rain = 0
KST2 120657Z 03004KT 05/M03 A3036 RMK A01 T00501028  RH  057%=      5-min Rain = 0
KST2 120658Z 03004KT 05/M03 A3036 RMK A01 T00501028  RH  057%=      5-min Rain = 0
KST2 120659Z 03004KT 05/M03 A3036 RMK A01 T00501028  RH  057%=      5-min Rain = 0
KST2 120700Z 03004KT 05/M03 A3036 RMK A01 T00491028  RH  057%=      5-min Rain = 0
KST2 120701Z 03004KT 05/M03 A3036 RMK A01 T00491027  RH  058%=      5-min Rain = 0
KST2 120702Z 03004KT 05/M03 A3036 RMK A01 T00491027  RH  058%=      5-min Rain = 0
KST2 120703Z 03004KT 05/M03 A3036 RMK A01 T00491027  RH  058%=      5-min Rain = 0
KST2 120704Z 03005KT 05/M03 A3036 RMK A01 T00491026  RH  058%=      5-min Rain = 0
KST2 120705Z 03005KT 05/M03 A3036 RMK A01 T00481027  RH  058%=      5-min Rain = 0
KST2 120706Z 03005KT 05/M03 A3036 RMK A01 T00481027  RH  058%=      5-min Rain = 0
KST2 120707Z 04005KT 05/M03 A3036 RMK A01 T00481027  RH  059%=      5-min Rain = 0
KST2 120708Z 04005KT 05/M03 A3036 RMK A01 T00471027  RH  059%=      5-min Rain = 0
KST2 120709Z 04004KT 05/M03 A3036 RMK A01 T00471027  RH  059%=      5-min Rain = 0
KST2 120710Z 04004KT 05/M03 A3036 RMK A01 T00471027  RH  059%=      5-min Rain = 0
KST2 120711Z 04004KT 05/M03 A3036 RMK A01 T00471027  RH  059%=      5-min Rain = 0
KST2 120712Z 03004KT 05/M03 A3036 RMK A01 T00471027  RH  059%=      5-min Rain = 0
KST2 120713Z 03004KT 05/M03 A3036 RMK A01 T00461027  RH  059%=      5-min Rain = 0
KST2 120714Z 03004KT 05/M03 A3036 RMK A01 T00461027  RH  059%=      5-min Rain = 0
KST2 120715Z 03004KT 05/M03 A3036 RMK A01 T00451028  RH  059%=      5-min Rain = 0
KST2 120716Z 03004KT 05/M03 A3036 RMK A01 T00451028  RH  059%=      5-min Rain = 0
KST2 120717Z 03003KT 04/M03 A3036 RMK A01 T00441028  RH  059%=      5-min Rain = 0
KST2 120718Z 03003KT 04/M03 A3036 RMK A01 T00441028  RH  060%=      5-min Rain = 0
KST2 120719Z 03004KT 04/M03 A3037 RMK A01 T00431028  RH  060%=      5-min Rain = 0
KST2 120720Z 03003KT 04/M03 A3037 RMK A01 T00431027  RH  060%=      5-min Rain = 0
KST2 120721Z 03003KT 04/M03 A3037 RMK A01 T00431027  RH  060%=      5-min Rain = 0
KST2 120722Z 03004KT 04/M03 A3036 RMK A01 T00431026  RH  061%=      5-min Rain = 0
KST2 120723Z 03004KT 04/M03 A3036 RMK A01 T00431026  RH  061%=      5-min Rain = 0
KST2 120724Z 03004KT 04/M03 A3036 RMK A01 T00441026  RH  061%=      5-min Rain = 0
KST2 120725Z 02004KT 04/M03 A3036 RMK A01 T00441026  RH  060%=      5-min Rain = 0
KST2 120726Z 02004KT 04/M03 A3036 RMK A01 T00441025  RH  061%=      5-min Rain = 0
KST2 120727Z 02005KT 04/M03 A3036 RMK A01 T00441025  RH  061%=      5-min Rain = 0
KST2 120728Z 02005KT 04/M03 A3036 RMK A01 T00441025  RH  061%=      5-min Rain = 0
KST2 120729Z 02004KT 04/M03 A3036 RMK A01 T00441025  RH  061%=      5-min Rain = 0
KST2 120730Z 02005KT 04/M03 A3036 RMK A01 T00431026  RH  061%=      5-min Rain = 0
KST2 120731Z 02005KT 04/M03 A3036 RMK A01 T00421027  RH  061%=      5-min Rain = 0
KST2 120732Z 03005KT 04/M03 A3036 RMK A01 T00411028  RH  060%=      5-min Rain = 0
KST2 120733Z 03005KT 04/M03 A3036 RMK A01 T00411029  RH  060%=      5-min Rain = 0
KST2 120734Z 03005KT 04/M03 A3036 RMK A01 T00401031  RH  060%=      5-min Rain = 0
KST2 120735Z 03005KT 04/M03 A3036 RMK A01 T00391033  RH  059%=      5-min Rain = 0
KST2 120736Z 03005KT 04/M03 A3036 RMK A01 T00391034  RH  059%=      5-min Rain = 0
KST2 120737Z 03005KT 04/M03 A3036 RMK A01 T00391034  RH  059%=      5-min Rain = 0
KST2 120738Z 03005KT 04/M04 A3036 RMK A01 T00381035  RH  059%=      5-min Rain = 0
KST2 120739Z 03005KT 04/M04 A3036 RMK A01 T00371036  RH  059%=      5-min Rain = 0
KST2 120740Z 02005KT 04/M04 A3036 RMK A01 T00371036  RH  059%=      5-min Rain = 0
KST2 120741Z 02005KT 04/M04 A3036 RMK A01 T00361036  RH  059%=      5-min Rain = 0
KST2 120742Z 02006KT 04/M04 A3036 RMK A01 T00351036  RH  060%=      5-min Rain = 0
KST2 120743Z 02006KT 04/M04 A3036 RMK A01 T00351036  RH  060%=      5-min Rain = 0
KST2 120744Z 02006KT 03/M04 A3036 RMK A01 T00341038  RH  059%=      5-min Rain = 0
KST2 120745Z 02006KT 03/M04 A3036 RMK A01 T00321039  RH  060%=      5-min Rain = 0
KST2 120746Z 03006KT 03/M04 A3036 RMK A01 T00311038  RH  060%=      5-min Rain = 0
KST2 120747Z 03006KT 03/M04 A3036 RMK A01 T00311037  RH  061%=      5-min Rain = 0
KST2 120748Z 03006KT 03/M04 A3036 RMK A01 T00301037  RH  061%=      5-min Rain = 0
KST2 120749Z 03007KT 03/M04 A3036 RMK A01 T00301036  RH  062%=      5-min Rain = 0
KST2 120750Z 03007KT 03/M04 A3036 RMK A01 T00301035  RH  062%=      5-min Rain = 0
KST2 120751Z 03007KT 03/M03 A3036 RMK A01 T00301034  RH  063%=      5-min Rain = 0
KST2 120752Z 03007KT 03/M03 A3036 RMK A01 T00301034  RH  063%=      5-min Rain = 0
KST2 120753Z 03007KT 03/M03 A3036 RMK A01 T00301034  RH  063%=      5-min Rain = 0
KST2 120754Z 03007KT 03/M03 A3036 RMK A01 T00301034  RH  063%=      5-min Rain = 0
KST2 120755Z 03007KT 03/M03 A3036 RMK A01 T00301034  RH  063%=      5-min Rain = 0
KST2 120756Z 02006KT 03/M03 A3036 RMK A01 T00301034  RH  063%=      5-min Rain = 0
KST2 120757Z 02006KT 03/M03 A3036 RMK A01 T00301034  RH  063%=      5-min Rain = 0
KST2 120758Z 02006KT 03/M03 A3036 RMK A01 T00301033  RH  063%=      5-min Rain = 0
KST2 120759Z 02006KT 03/M03 A3036 RMK A01 T00301033  RH  063%=      5-min Rain = 0
KST2 120800Z 02006KT 03/M03 A3036 RMK A01 T00301032  RH  063%=      5-min Rain = 0
KST2 120801Z 03006KT 03/M03 A3036 RMK A01 T00301033  RH  063%=      5-min Rain = 0
KST2 120802Z 03006KT 03/M03 A3036 RMK A01 T00301032  RH  064%=      5-min Rain = 0
KST2 120803Z 03006KT 03/M03 A3036 RMK A01 T00291033  RH  064%=      5-min Rain = 0
KST2 120804Z 03006KT 03/M03 A3036 RMK A01 T00291032  RH  064%=      5-min Rain = 0
KST2 120805Z 03006KT 03/M03 A3036 RMK A01 T00291032  RH  064%=      5-min Rain = 0
KST2 120806Z 03006KT 03/M03 A3036 RMK A01 T00291032  RH  064%=      5-min Rain = 0
KST2 120807Z 03006KT 03/M03 A3036 RMK A01 T00281032  RH  064%=      5-min Rain = 0
KST2 120808Z 03005KT 03/M03 A3036 RMK A01 T00281032  RH  065%=      5-min Rain = 0
KST2 120809Z 04005KT 03/M03 A3036 RMK A01 T00281031  RH  065%=      5-min Rain = 0
KST2 120810Z 04005KT 03/M03 A3036 RMK A01 T00281032  RH  065%=      5-min Rain = 0
KST2 120811Z 04005KT 03/M03 A3036 RMK A01 T00281031  RH  065%=      5-min Rain = 0
KST2 120812Z 04005KT 03/M03 A3036 RMK A01 T00281031  RH  065%=      5-min Rain = 0
KST2 120813Z 04005KT 03/M03 A3036 RMK A01 T00281032  RH  065%=      5-min Rain = 0
KST2 120814Z 04005KT 03/M03 A3036 RMK A01 T00271032  RH  065%=      5-min Rain = 0
KST2 120815Z 04005KT 03/M03 A3036 RMK A01 T00271033  RH  065%=      5-min Rain = 0
KST2 120816Z 04005KT 03/M03 A3036 RMK A01 T00271033  RH  065%=      5-min Rain = 0
KST2 120817Z 04005KT 03/M03 A3036 RMK A01 T00271032  RH  065%=      5-min Rain = 0
KST2 120818Z 04005KT 03/M03 A3036 RMK A01 T00261032  RH  065%=      5-min Rain = 0
KST2 120819Z 04005KT 03/M03 A3036 RMK A01 T00261031  RH  066%=      5-min Rain = 0
KST2 120820Z 04005KT 03/M03 A3036 RMK A01 T00261031  RH  066%=      5-min Rain = 0
KST2 120821Z 04005KT 03/M03 A3036 RMK A01 T00271031  RH  065%=      5-min Rain = 0
KST2 120822Z 04005KT 03/M03 A3036 RMK A01 T00281030  RH  065%=      5-min Rain = 0
KST2 120823Z 04005KT 03/M03 A3036 RMK A01 T00291030  RH  066%=      5-min Rain = 0
KST2 120824Z 04005KT 03/M03 A3036 RMK A01 T00311028  RH  066%=      5-min Rain = 0
KST2 120825Z 04005KT 03/M03 A3036 RMK A01 T00311029  RH  065%=      5-min Rain = 0
KST2 120826Z 04006KT 03/M03 A3036 RMK A01 T00311030  RH  064%=      5-min Rain = 0
KST2 120827Z 03006KT 03/M03 A3036 RMK A01 T00311031  RH  064%=      5-min Rain = 0
KST2 120828Z 03005KT 03/M03 A3036 RMK A01 T00301031  RH  064%=      5-min Rain = 0
KST2 120829Z 03005KT 03/M03 A3036 RMK A01 T00291031  RH  065%=      5-min Rain = 0
KST2 120830Z 04006KT 03/M03 A3036 RMK A01 T00291031  RH  065%=      5-min Rain = 0
KST2 120831Z 03005KT 03/M03 A3036 RMK A01 T00281031  RH  065%=      5-min Rain = 0
KST2 120832Z 03005KT 03/M03 A3036 RMK A01 T00271033  RH  065%=      5-min Rain = 0
KST2 120833Z 03005KT 03/M03 A3036 RMK A01 T00261033  RH  065%=      5-min Rain = 0
KST2 120834Z 03005KT 03/M03 A3036 RMK A01 T00261033  RH  065%=      5-min Rain = 0
KST2 120835Z 03005KT 03/M03 A3036 RMK A01 T00261032  RH  066%=      5-min Rain = 0
KST2 120836Z 03005KT 03/M03 A3036 RMK A01 T00251032  RH  066%=      5-min Rain = 0
KST2 120837Z 03005KT 03/M03 A3036 RMK A01 T00251033  RH  066%=      5-min Rain = 0
KST2 120838Z 03005KT 02/M03 A3036 RMK A01 T00241034  RH  066%=      5-min Rain = 0
KST2 120839Z 03006KT 02/M03 A3036 RMK A01 T00241034  RH  066%=      5-min Rain = 0
KST2 120840Z 02005KT 02/M03 A3036 RMK A01 T00241034  RH  065%=      5-min Rain = 0
KST2 120841Z 03005KT 02/M03 A3036 RMK A01 T00241034  RH  066%=      5-min Rain = 0
KST2 120842Z 02005KT 02/M03 A3036 RMK A01 T00241034  RH  066%=      5-min Rain = 0
KST2 120843Z 03005KT 02/M04 A3036 RMK A01 T00241035  RH  065%=      5-min Rain = 0
KST2 120844Z 03005KT 02/M04 A3036 RMK A01 T00241035  RH  065%=      5-min Rain = 0
KST2 120845Z 02006KT 02/M04 A3036 RMK A01 T00241036  RH  065%=      5-min Rain = 0
KST2 120846Z 03006KT 02/M04 A3036 RMK A01 T00231036  RH  065%=      5-min Rain = 0
KST2 120847Z 02006KT 02/M04 A3036 RMK A01 T00231036  RH  065%=      5-min Rain = 0
KST2 120848Z 03006KT 02/M04 A3036 RMK A01 T00231035  RH  065%=      5-min Rain = 0
KST2 120849Z 03006KT 02/M04 A3036 RMK A01 T00231035  RH  065%=      5-min Rain = 0
KST2 120850Z 02006KT 02/M04 A3036 RMK A01 T00231035  RH  065%=      5-min Rain = 0
KST2 120851Z 02006KT 02/M03 A3036 RMK A01 T00241034  RH  066%=      5-min Rain = 0
KST2 120852Z 02006KT 02/M03 A3036 RMK A01 T00241034  RH  066%=      5-min Rain = 0
KST2 120853Z 02007KT 02/M03 A3036 RMK A01 T00241033  RH  066%=      5-min Rain = 0
KST2 120854Z 02006KT 02/M03 A3036 RMK A01 T00241032  RH  066%=      5-min Rain = 0
KST2 120855Z 02006KT 02/M03 A3036 RMK A01 T00241033  RH  066%=      5-min Rain = 0
KST2 120856Z 02006KT 02/M03 A3036 RMK A01 T00241032  RH  066%=      5-min Rain = 0
KST2 120857Z 02006KT 02/M03 A3036 RMK A01 T00241033  RH  066%=      5-min Rain = 0
KST2 120858Z 02006KT 02/M03 A3036 RMK A01 T00241033  RH  066%=      5-min Rain = 0
KST2 120859Z 02006KT 02/M03 A3036 RMK A01 T00241033  RH  066%=      5-min Rain = 0
KST2 120900Z 02006KT 02/M03 A3036 RMK A01 T00231034  RH  066%=      5-min Rain = 0
KST2 120901Z 02006KT 02/M03 A3036 RMK A01 T00231034  RH  066%=      5-min Rain = 0
KST2 120902Z 02006KT 02/M03 A3036 RMK A01 T00231034  RH  066%=      5-min Rain = 0
KST2 120903Z 01007KT 02/M03 A3036 RMK A01 T00231033  RH  066%=      5-min Rain = 0
KST2 120904Z 02007KT 02/M03 A3036 RMK A01 T00231033  RH  066%=      5-min Rain = 0
KST2 120905Z 02007KT 02/M03 A3035 RMK A01 T00231033  RH  066%=      5-min Rain = 0
KST2 120906Z 02008KT 02/M03 A3035 RMK A01 T00241032  RH  067%=      5-min Rain = 0
KST2 120907Z 02008KT 03/M03 A3035 RMK A01 T00251031  RH  067%=      5-min Rain = 0
KST2 120908Z 02008KT 03/M03 A3035 RMK A01 T00261030  RH  067%=      5-min Rain = 0
KST2 120909Z 02008KT 03/M03 A3035 RMK A01 T00271029  RH  066%=      5-min Rain = 0
KST2 120910Z 02008KT 03/M03 A3035 RMK A01 T00281029  RH  066%=      5-min Rain = 0
KST2 120911Z 02008KT 03/M03 A3035 RMK A01 T00281029  RH  066%=      5-min Rain = 0
KST2 120912Z 02008KT 03/M03 A3035 RMK A01 T00281029  RH  066%=      5-min Rain = 0
KST2 120913Z 02008KT 03/M03 A3035 RMK A01 T00281029  RH  066%=      5-min Rain = 0
KST2 120914Z 02008KT 03/M03 A3035 RMK A01 T00281029  RH  066%=      5-min Rain = 0
KST2 120915Z 02008KT 03/M03 A3035 RMK A01 T00281029  RH  066%=      5-min Rain = 0
KST2 120916Z 02008KT 03/M03 A3035 RMK A01 T00281029  RH  066%=      5-min Rain = 0
KST2 120917Z 02008KT 03/M03 A3035 RMK A01 T00281030  RH  066%=      5-min Rain = 0
KST2 120918Z 01008KT 03/M03 A3035 RMK A01 T00281029  RH  066%=      5-min Rain = 0
KST2 120919Z 01008KT 03/M03 A3035 RMK A01 T00281030  RH  066%=      5-min Rain = 0
KST2 120920Z 01008KT 03/M03 A3035 RMK A01 T00281029  RH  066%=      5-min Rain = 0
KST2 120921Z 01008KT 03/M03 A3035 RMK A01 T00281029  RH  066%=      5-min Rain = 0
KST2 120922Z 01007KT 03/M03 A3035 RMK A01 T00281029  RH  066%=      5-min Rain = 0
KST2 120923Z 01007KT 03/M03 A3035 RMK A01 T00281029  RH  066%=      5-min Rain = 0
KST2 120924Z 02007KT 03/M03 A3035 RMK A01 T00281029  RH  066%=      5-min Rain = 0
KST2 120925Z 02007KT 03/M03 A3035 RMK A01 T00281029  RH  066%=      5-min Rain = 0
KST2 120926Z 02007KT 03/M03 A3035 RMK A01 T00271030  RH  066%=      5-min Rain = 0
KST2 120927Z 02007KT 03/M03 A3035 RMK A01 T00261030  RH  066%=      5-min Rain = 0
KST2 120928Z 02008KT 03/M03 A3035 RMK A01 T00261030  RH  067%=      5-min Rain = 0
KST2 120929Z 02008KT 03/M03 A3035 RMK A01 T00261030  RH  067%=      5-min Rain = 0
KST2 120930Z 02008KT 03/M03 A3035 RMK A01 T00261030  RH  067%=      5-min Rain = 0
KST2 120931Z 02008KT 03/M03 A3035 RMK A01 T00251031  RH  067%=      5-min Rain = 0
KST2 120932Z 02008KT 02/M03 A3035 RMK A01 T00241031  RH  067%=      5-min Rain = 0
KST2 120933Z 02008KT 03/M03 A3035 RMK A01 T00251030  RH  067%=      5-min Rain = 0
KST2 120934Z 02008KT 02/M03 A3035 RMK A01 T00241030  RH  067%=      5-min Rain = 0
KST2 120935Z 03008KT 02/M03 A3035 RMK A01 T00241030  RH  067%=      5-min Rain = 0
KST2 120936Z 02008KT 02/M03 A3035 RMK A01 T00231030  RH  068%=      5-min Rain = 0
KST2 120937Z 02008KT 02/M03 A3035 RMK A01 T00231030  RH  068%=      5-min Rain = 0
KST2 120938Z 02008KT 02/M03 A3035 RMK A01 T00241030  RH  068%=      5-min Rain = 0
KST2 120939Z 02008KT 02/M03 A3035 RMK A01 T00241030  RH  068%=      5-min Rain = 0
KST2 120940Z 02008KT 02/M03 A3035 RMK A01 T00241029  RH  068%=      5-min Rain = 0
KST2 120941Z 02008KT 02/M03 A3035 RMK A01 T00231030  RH  068%=      5-min Rain = 0
KST2 120942Z 02008KT 02/M03 A3035 RMK A01 T00241029  RH  068%=      5-min Rain = 0
KST2 120943Z 02008KT 02/M03 A3035 RMK A01 T00241029  RH  068%=      5-min Rain = 0
KST2 120944Z 02007KT 02/M03 A3035 RMK A01 T00241029  RH  068%=      5-min Rain = 0
KST2 120945Z 02007KT 02/M03 A3035 RMK A01 T00241029  RH  068%=      5-min Rain = 0
KST2 120946Z 02007KT 02/M03 A3035 RMK A01 T00231030  RH  068%=      5-min Rain = 0
KST2 120947Z 02008KT 02/M03 A3035 RMK A01 T00231030  RH  068%=      5-min Rain = 0
KST2 120948Z 02008KT 02/M03 A3035 RMK A01 T00231029  RH  068%=      5-min Rain = 0
KST2 120949Z 02008KT 02/M03 A3035 RMK A01 T00231029  RH  069%=      5-min Rain = 0
KST2 120950Z 02007KT 02/M03 A3035 RMK A01 T00231029  RH  069%=      5-min Rain = 0
KST2 120951Z 02007KT 02/M03 A3035 RMK A01 T00231029  RH  069%=      5-min Rain = 0
KST2 120952Z 01007KT 02/M03 A3035 RMK A01 T00231029  RH  069%=      5-min Rain = 0
KST2 120953Z 01007KT 02/M03 A3035 RMK A01 T00231029  RH  069%=      5-min Rain = 0
KST2 120954Z 01007KT 02/M03 A3035 RMK A01 T00221029  RH  069%=      5-min Rain = 0
KST2 120955Z 00006KT 02/M03 A3035 RMK A01 T00231028  RH  069%=      5-min Rain = 0
KST2 120956Z 00006KT 02/M03 A3035 RMK A01 T00231027  RH  069%=      5-min Rain = 0
KST2 120957Z 01006KT 02/M03 A3035 RMK A01 T00231030  RH  068%=      5-min Rain = 0
KST2 120958Z 01006KT 02/M03 A3035 RMK A01 T00231031  RH  068%=      5-min Rain = 0
KST2 120959Z 01006KT 02/M03 A3035 RMK A01 T00231031  RH  068%=      5-min Rain = 0
KST2 121000Z 01006KT 02/M03 A3035 RMK A01 T00231030  RH  068%=      5-min Rain = 0
KST2 121001Z 00006KT 02/M03 A3035 RMK A01 T00241027  RH  069%=      5-min Rain = 0
KST2 121002Z 01006KT 02/M03 A3035 RMK A01 T00241028  RH  069%=      5-min Rain = 0
KST2 121003Z 01006KT 02/M03 A3036 RMK A01 T00241028  RH  068%=      5-min Rain = 0
KST2 121004Z 01006KT 02/M03 A3036 RMK A01 T00241028  RH  068%=      5-min Rain = 0
KST2 121005Z 00006KT 03/M03 A3036 RMK A01 T00251028  RH  068%=      5-min Rain = 0
KST2 121006Z 01006KT 03/M03 A3036 RMK A01 T00251028  RH  068%=      5-min Rain = 0
KST2 121007Z 01006KT 03/M03 A3036 RMK A01 T00251027  RH  068%=      5-min Rain = 0
KST2 121008Z 01006KT 03/M03 A3036 RMK A01 T00261027  RH  068%=      5-min Rain = 0
KST2 121009Z 01006KT 03/M03 A3036 RMK A01 T00261026  RH  068%=      5-min Rain = 0
KST2 121010Z 01007KT 03/M03 A3036 RMK A01 T00271026  RH  068%=      5-min Rain = 0
KST2 121011Z 01007KT 03/M03 A3036 RMK A01 T00271026  RH  068%=      5-min Rain = 0
KST2 121012Z 01007KT 03/M03 A3036 RMK A01 T00271027  RH  068%=      5-min Rain = 0
KST2 121013Z 01007KT 03/M03 A3036 RMK A01 T00271027  RH  068%=      5-min Rain = 0
KST2 121014Z 01007KT 03/M03 A3036 RMK A01 T00271027  RH  068%=      5-min Rain = 0
KST2 121015Z 01007KT 03/M03 A3036 RMK A01 T00271026  RH  068%=      5-min Rain = 0
KST2 121016Z 01007KT 03/M03 A3036 RMK A01 T00271026  RH  068%=      5-min Rain = 0
KST2 121017Z 01007KT 03/M03 A3036 RMK A01 T00261027  RH  068%=      5-min Rain = 0
KST2 121018Z 01007KT 03/M03 A3036 RMK A01 T00261026  RH  068%=      5-min Rain = 0
KST2 121019Z 01007KT 03/M03 A3036 RMK A01 T00261027  RH  068%=      5-min Rain = 0
KST2 121020Z 01007KT 03/M03 A3036 RMK A01 T00251027  RH  068%=      5-min Rain = 0
KST2 121021Z 01007KT 03/M03 A3036 RMK A01 T00251027  RH  068%=      5-min Rain = 0
KST2 121022Z 01007KT 03/M03 A3036 RMK A01 T00251027  RH  068%=      5-min Rain = 0
KST2 121023Z 01007KT 03/M03 A3036 RMK A01 T00261026  RH  068%=      5-min Rain = 0
KST2 121024Z 01007KT 03/M03 A3036 RMK A01 T00251027  RH  069%=      5-min Rain = 0
KST2 121025Z 01007KT 03/M03 A3036 RMK A01 T00251027  RH  069%=      5-min Rain = 0
KST2 121026Z 01007KT 03/M03 A3036 RMK A01 T00251027  RH  069%=      5-min Rain = 0
KST2 121027Z 01007KT 03/M03 A3036 RMK A01 T00251027  RH  069%=      5-min Rain = 0
KST2 121028Z 01007KT 03/M03 A3036 RMK A01 T00251027  RH  069%=      5-min Rain = 0
KST2 121029Z 01007KT 02/M03 A3036 RMK A01 T00241027  RH  069%=      5-min Rain = 0
KST2 121030Z 01007KT 02/M03 A3036 RMK A01 T00241027  RH  069%=      5-min Rain = 0
KST2 121031Z 01007KT 02/M03 A3036 RMK A01 T00241027  RH  069%=      5-min Rain = 0
KST2 121032Z 01006KT 02/M03 A3036 RMK A01 T00241027  RH  069%=      5-min Rain = 0
KST2 121033Z 01006KT 02/M03 A3036 RMK A01 T00231027  RH  069%=      5-min Rain = 0
KST2 121034Z 01006KT 02/M03 A3036 RMK A01 T00231027  RH  069%=      5-min Rain = 0
KST2 121035Z 01006KT 02/M03 A3036 RMK A01 T00241027  RH  069%=      5-min Rain = 0
KST2 121036Z 01006KT 02/M03 A3036 RMK A01 T00231027  RH  069%=      5-min Rain = 0
KST2 121037Z 01005KT 02/M03 A3036 RMK A01 T00231027  RH  069%=      5-min Rain = 0
KST2 121038Z 01005KT 02/M03 A3036 RMK A01 T00231027  RH  069%=      5-min Rain = 0
KST2 121039Z 01005KT 02/M03 A3036 RMK A01 T00231027  RH  070%=      5-min Rain = 0
KST2 121040Z 01006KT 02/M03 A3036 RMK A01 T00231027  RH  070%=      5-min Rain = 0
KST2 121041Z 02006KT 02/M03 A3036 RMK A01 T00231027  RH  070%=      5-min Rain = 0
KST2 121042Z 02006KT 02/M03 A3036 RMK A01 T00231027  RH  070%=      5-min Rain = 0
KST2 121043Z 02006KT 02/M03 A3036 RMK A01 T00231027  RH  070%=      5-min Rain = 0
KST2 121044Z 02006KT 02/M03 A3036 RMK A01 T00231026  RH  070%=      5-min Rain = 0
KST2 121045Z 02005KT 02/M03 A3036 RMK A01 T00241026  RH  070%=      5-min Rain = 0
KST2 121046Z 02005KT 02/M03 A3036 RMK A01 T00241026  RH  070%=      5-min Rain = 0
KST2 121047Z 02005KT 02/M03 A3036 RMK A01 T00241026  RH  070%=      5-min Rain = 0
KST2 121048Z 02005KT 02/M03 A3036 RMK A01 T00241026  RH  070%=      5-min Rain = 0
KST2 121049Z 02005KT 02/M03 A3037 RMK A01 T00241026  RH  070%=      5-min Rain = 0
KST2 121050Z 02005KT 02/M03 A3037 RMK A01 T00241025  RH  070%=      5-min Rain = 0
KST2 121051Z 01005KT 02/M03 A3037 RMK A01 T00241025  RH  070%=      5-min Rain = 0
KST2 121052Z 01005KT 03/M03 A3037 RMK A01 T00251025  RH  070%=      5-min Rain = 0
KST2 121053Z 01005KT 02/M03 A3037 RMK A01 T00241025  RH  070%=      5-min Rain = 0
KST2 121054Z 01005KT 02/M03 A3037 RMK A01 T00241025  RH  070%=      5-min Rain = 0
KST2 121055Z 01005KT 03/M02 A3036 RMK A01 T00251024  RH  070%=      5-min Rain = 0
KST2 121056Z 01005KT 03/M02 A3036 RMK A01 T00251024  RH  070%=      5-min Rain = 0
KST2 121057Z 01005KT 03/M02 A3037 RMK A01 T00261023  RH  070%=      5-min Rain = 0
KST2 121058Z 00004KT 03/M02 A3037 RMK A01 T00261023  RH  070%=      5-min Rain = 0
KST2 121059Z 00004KT 03/M02 A3037 RMK A01 T00261024  RH  069%=      5-min Rain = 0
KST2 121100Z 00004KT 03/M03 A3037 RMK A01 T00261026  RH  068%=      5-min Rain = 0
KST2 121101Z 00004KT 03/M03 A3037 RMK A01 T00261028  RH  068%=      5-min Rain = 0
KST2 121102Z 00004KT 03/M03 A3037 RMK A01 T00251028  RH  068%=      5-min Rain = 0
KST2 121103Z 00004KT 03/M03 A3037 RMK A01 T00251028  RH  068%=      5-min Rain = 0
KST2 121104Z 00005KT 03/M03 A3037 RMK A01 T00251028  RH  068%=      5-min Rain = 0
KST2 121105Z 36005KT 03/M03 A3037 RMK A01 T00251028  RH  068%=      5-min Rain = 0
KST2 121106Z 35005KT 03/M03 A3037 RMK A01 T00251028  RH  068%=      5-min Rain = 0
KST2 121107Z 35005KT 03/M03 A3037 RMK A01 T00251028  RH  068%=      5-min Rain = 0
KST2 121108Z 35005KT 03/M03 A3038 RMK A01 T00251028  RH  068%=      5-min Rain = 0
KST2 121109Z 35005KT 03/M03 A3038 RMK A01 T00251028  RH  068%=      5-min Rain = 0
KST2 121110Z 35005KT 03/M03 A3038 RMK A01 T00251027  RH  068%=      5-min Rain = 0
KST2 121111Z 34005KT 03/M03 A3038 RMK A01 T00261026  RH  068%=      5-min Rain = 0
KST2 121112Z 34005KT 03/M03 A3038 RMK A01 T00261026  RH  068%=      5-min Rain = 0
KST2 121113Z 34005KT 03/M03 A3038 RMK A01 T00261026  RH  068%=      5-min Rain = 0
KST2 121114Z 34005KT 03/M03 A3038 RMK A01 T00271026  RH  068%=      5-min Rain = 0
KST2 121115Z 34005KT 03/M03 A3038 RMK A01 T00271027  RH  068%=      5-min Rain = 0
KST2 121116Z 33005KT 03/M03 A3038 RMK A01 T00271028  RH  067%=      5-min Rain = 0
KST2 121117Z 33004KT 03/M03 A3038 RMK A01 T00271028  RH  067%=      5-min Rain = 0
KST2 121118Z 33004KT 03/M03 A3038 RMK A01 T00271028  RH  067%=      5-min Rain = 0
KST2 121119Z 33004KT 03/M03 A3038 RMK A01 T00261027  RH  068%=      5-min Rain = 0
KST2 121120Z 32004KT 03/M03 A3038 RMK A01 T00261027  RH  068%=      5-min Rain = 0
KST2 121121Z 32004KT 03/M03 A3038 RMK A01 T00261027  RH  068%=      5-min Rain = 0
KST2 121122Z 32004KT 03/M03 A3038 RMK A01 T00261027  RH  068%=      5-min Rain = 0
KST2 121123Z 31004KT 03/M03 A3038 RMK A01 T00261027  RH  068%=      5-min Rain = 0
KST2 121124Z 32004KT 03/M03 A3038 RMK A01 T00261027  RH  068%=      5-min Rain = 0
KST2 121125Z 32004KT 03/M03 A3038 RMK A01 T00261027  RH  068%=      5-min Rain = 0
KST2 121126Z 32004KT 03/M03 A3038 RMK A01 T00261026  RH  068%=      5-min Rain = 0
KST2 121127Z 32003KT 03/M03 A3038 RMK A01 T00261026  RH  069%=      5-min Rain = 0
KST2 121128Z 33003KT 03/M03 A3038 RMK A01 T00261026  RH  069%=      5-min Rain = 0
KST2 121129Z 33003KT 03/M03 A3038 RMK A01 T00261026  RH  069%=      5-min Rain = 0
KST2 121130Z 33003KT 03/M03 A3038 RMK A01 T00261026  RH  069%=      5-min Rain = 0
KST2 121131Z 33003KT 03/M03 A3038 RMK A01 T00261026  RH  069%=      5-min Rain = 0
KST2 121132Z 32003KT 03/M03 A3038 RMK A01 T00261026  RH  069%=      5-min Rain = 0
KST2 121133Z 32003KT 03/M03 A3038 RMK A01 T00261026  RH  069%=      5-min Rain = 0
KST2 121134Z 32003KT 03/M03 A3038 RMK A01 T00261027  RH  068%=      5-min Rain = 0
KST2 121135Z 32003KT 03/M03 A3038 RMK A01 T00251027  RH  068%=      5-min Rain = 0
KST2 121136Z 32003KT 03/M03 A3038 RMK A01 T00251027  RH  068%=      5-min Rain = 0
KST2 121137Z 32003KT 03/M03 A3039 RMK A01 T00251027  RH  069%=      5-min Rain = 0
KST2 121138Z 32003KT 03/M03 A3039 RMK A01 T00251027  RH  069%=      5-min Rain = 0
KST2 121139Z 32003KT 03/M03 A3039 RMK A01 T00251027  RH  068%=      5-min Rain = 0
KST2 121140Z 32003KT 03/M03 A3039 RMK A01 T00251027  RH  069%=      5-min Rain = 0
KST2 121141Z 31002KT 03/M03 A3039 RMK A01 T00251027  RH  069%=      5-min Rain = 0
KST2 121142Z 31002KT 03/M03 A3039 RMK A01 T00251027  RH  068%=      5-min Rain = 0
KST2 121143Z 31002KT 03/M03 A3039 RMK A01 T00251028  RH  068%=      5-min Rain = 0
KST2 121144Z 30003KT 03/M03 A3039 RMK A01 T00251028  RH  068%=      5-min Rain = 0
KST2 121145Z 30003KT 03/M03 A3039 RMK A01 T00251027  RH  068%=      5-min Rain = 0
KST2 121146Z 30003KT 03/M03 A3039 RMK A01 T00251027  RH  068%=      5-min Rain = 0
KST2 121147Z 29003KT 03/M03 A3039 RMK A01 T00251027  RH  068%=      5-min Rain = 0
KST2 121148Z 29003KT 03/M03 A3039 RMK A01 T00251028  RH  068%=      5-min Rain = 0
KST2 121149Z 30004KT 03/M03 A3039 RMK A01 T00251027  RH  068%=      5-min Rain = 0
KST2 121150Z 29004KT 03/M03 A3039 RMK A01 T00261027  RH  068%=      5-min Rain = 0
KST2 121151Z 29003KT 03/M03 A3039 RMK A01 T00261026  RH  068%=      5-min Rain = 0
KST2 121152Z 30004KT 03/M03 A3039 RMK A01 T00261026  RH  068%=      5-min Rain = 0
KST2 121153Z 30003KT 03/M03 A3039 RMK A01 T00271026  RH  068%=      5-min Rain = 0
KST2 121154Z 30003KT 03/M03 A3039 RMK A01 T00271026  RH  068%=      5-min Rain = 0
KST2 121155Z 31004KT 03/M03 A3039 RMK A01 T00271025  RH  068%=      5-min Rain = 0
KST2 121156Z 31004KT 03/M03 A3039 RMK A01 T00281025  RH  068%=      5-min Rain = 0
KST2 121157Z 31004KT 03/M03 A3039 RMK A01 T00281025  RH  068%=      5-min Rain = 0
KST2 121158Z 31004KT 03/M03 A3039 RMK A01 T00281025  RH  068%=      5-min Rain = 0
KST2 121159Z 31004KT 03/M03 A3039 RMK A01 T00281025  RH  068%=      5-min Rain = 0
KST2 121200Z 30004KT 03/M03 A3039 RMK A01 T00281025  RH  068%=      5-min Rain = 0
KST2 121201Z 30005KT 03/M02 A3039 RMK A01 T00281024  RH  068%=      5-min Rain = 0
KST2 121202Z 30004KT 03/M02 A304 RMK A01 T00291024  RH  068%=      5-min Rain = 0
KST2 121203Z 30004KT 03/M02 A304 RMK A01 T00291024  RH  068%=      5-min Rain = 0
KST2 121204Z 30004KT 03/M02 A304 RMK A01 T00291024  RH  068%=      5-min Rain = 0
KST2 121205Z 31004KT 03/M02 A304 RMK A01 T00291023  RH  068%=      5-min Rain = 0
KST2 121206Z 31005KT 03/M02 A304 RMK A01 T00301023  RH  068%=      5-min Rain = 0
KST2 121207Z 31005KT 03/M02 A304 RMK A01 T00301023  RH  068%=      5-min Rain = 0
KST2 121208Z 31004KT 03/M02 A304 RMK A01 T00311022  RH  068%=      5-min Rain = 0
KST2 121209Z 31005KT 03/M02 A304 RMK A01 T00311022  RH  068%=      5-min Rain = 0
KST2 121210Z 31005KT 03/M02 A304 RMK A01 T00321022  RH  068%=      5-min Rain = 0
KST2 121211Z 31004KT 03/M02 A304 RMK A01 T00321022  RH  068%=      5-min Rain = 0
KST2 121212Z 32004KT 03/M02 A304 RMK A01 T00321022  RH  068%=      5-min Rain = 0
KST2 121213Z 32004KT 03/M02 A304 RMK A01 T00321022  RH  068%=      5-min Rain = 0
KST2 121214Z 33004KT 03/M02 A304 RMK A01 T00321021  RH  068%=      5-min Rain = 0
KST2 121215Z 33004KT 03/M02 A304 RMK A01 T00331021  RH  068%=      5-min Rain = 0
KST2 121216Z 33004KT 03/M02 A304 RMK A01 T00331021  RH  068%=      5-min Rain = 0
KST2 121217Z 33004KT 03/M02 A304 RMK A01 T00331021  RH  068%=      5-min Rain = 0
KST2 121218Z 33004KT 03/M02 A304 RMK A01 T00331020  RH  068%=      5-min Rain = 0
KST2 121219Z 34004KT 03/M02 A304 RMK A01 T00331021  RH  068%=      5-min Rain = 0
KST2 121220Z 34004KT 03/M02 A304 RMK A01 T00331021  RH  068%=      5-min Rain = 0
KST2 121221Z 34004KT 03/M02 A304 RMK A01 T00341020  RH  068%=      5-min Rain = 0
KST2 121222Z 34004KT 03/M02 A304 RMK A01 T00341021  RH  068%=      5-min Rain = 0
KST2 121223Z 34004KT 03/M02 A304 RMK A01 T00341021  RH  068%=      5-min Rain = 0
KST2 121224Z 34003KT 03/M02 A304 RMK A01 T00341020  RH  068%=      5-min Rain = 0
KST2 121225Z 35004KT 03/M02 A304 RMK A01 T00341020  RH  068%=      5-min Rain = 0
KST2 121226Z 35004KT 03/M02 A304 RMK A01 T00341020  RH  068%=      5-min Rain = 0
KST2 121227Z 34004KT 03/M02 A304 RMK A01 T00341020  RH  068%=      5-min Rain = 0
KST2 121228Z 35004KT 03/M02 A304 RMK A01 T00341020  RH  068%=      5-min Rain = 0
KST2 121229Z 35004KT 03/M02 A304 RMK A01 T00341020  RH  068%=      5-min Rain = 0
KST2 121230Z 35004KT 03/M02 A304 RMK A01 T00341021  RH  067%=      5-min Rain = 0
KST2 121231Z 36004KT 03/M02 A304 RMK A01 T00341021  RH  067%=      5-min Rain = 0
KST2 121232Z 36004KT 03/M02 A304 RMK A01 T00341020  RH  067%=      5-min Rain = 0
KST2 121233Z 35004KT 03/M02 A304 RMK A01 T00341021  RH  067%=      5-min Rain = 0
KST2 121234Z 35003KT 03/M02 A304 RMK A01 T00341021  RH  067%=      5-min Rain = 0
KST2 121235Z 36004KT 03/M02 A304 RMK A01 T00341021  RH  067%=      5-min Rain = 0
KST2 121236Z 35003KT 03/M02 A304 RMK A01 T00341020  RH  067%=      5-min Rain = 0
KST2 121237Z 35003KT 04/M02 A304 RMK A01 T00351020  RH  067%=      5-min Rain = 0
KST2 121238Z 35004KT 03/M02 A304 RMK A01 T00341020  RH  067%=      5-min Rain = 0
KST2 121239Z 35003KT 04/M02 A304 RMK A01 T00351020  RH  067%=      5-min Rain = 0
KST2 121240Z 35003KT 04/M02 A304 RMK A01 T00351020  RH  067%=      5-min Rain = 0
KST2 121241Z 36003KT 04/M02 A304 RMK A01 T00351020  RH  067%=      5-min Rain = 0
KST2 121242Z 35003KT 04/M02 A304 RMK A01 T00351020  RH  067%=      5-min Rain = 0
KST2 121243Z 35004KT 04/M02 A304 RMK A01 T00351021  RH  067%=      5-min Rain = 0
KST2 121244Z 35004KT 04/M02 A304 RMK A01 T00351020  RH  067%=      5-min Rain = 0
KST2 121245Z 35004KT 04/M02 A304 RMK A01 T00351020  RH  067%=      5-min Rain = 0
KST2 121246Z 35004KT 03/M02 A304 RMK A01 T00341020  RH  067%=      5-min Rain = 0
KST2 121247Z 35004KT 04/M02 A304 RMK A01 T00351020  RH  067%=      5-min Rain = 0
KST2 121248Z 35003KT 04/M02 A304 RMK A01 T00351021  RH  067%=      5-min Rain = 0
KST2 121249Z 34004KT 04/M02 A304 RMK A01 T00351020  RH  067%=      5-min Rain = 0
KST2 121250Z 34003KT 04/M02 A304 RMK A01 T00351020  RH  067%=      5-min Rain = 0
KST2 121251Z 34003KT 03/M02 A304 RMK A01 T00341020  RH  067%=      5-min Rain = 0
KST2 121252Z 35003KT 04/M02 A3041 RMK A01 T00351020  RH  067%=      5-min Rain = 0
KST2 121253Z 35003KT 03/M02 A3041 RMK A01 T00341020  RH  067%=      5-min Rain = 0
KST2 121254Z 35003KT 04/M02 A3041 RMK A01 T00351020  RH  067%=      5-min Rain = 0
KST2 121255Z 35003KT 03/M02 A3041 RMK A01 T00341020  RH  067%=      5-min Rain = 0
KST2 121256Z 35003KT 04/M02 A3041 RMK A01 T00351020  RH  067%=      5-min Rain = 0
KST2 121257Z 36004KT 04/M02 A3041 RMK A01 T00351020  RH  067%=      5-min Rain = 0
KST2 121258Z 36003KT 04/M02 A3041 RMK A01 T00351020  RH  067%=      5-min Rain = 0
KST2 121259Z 35004KT 04/M02 A3041 RMK A01 T00351020  RH  067%=      5-min Rain = 0
KST2 121300Z 35004KT 04/M02 A3041 RMK A01 T00351020  RH  067%=      5-min Rain = 0
KST2 121301Z 36004KT 04/M02 A3041 RMK A01 T00351020  RH  067%=      5-min Rain = 0
KST2 121302Z 36004KT 03/M02 A3041 RMK A01 T00341020  RH  067%=      5-min Rain = 0
KST2 121303Z 01004KT 04/M02 A304 RMK A01 T00351019  RH  068%=      5-min Rain = 0
KST2 121304Z 00004KT 04/M02 A304 RMK A01 T00351019  RH  068%=      5-min Rain = 0
KST2 121305Z 01005KT 04/M02 A304 RMK A01 T00351019  RH  068%=      5-min Rain = 0
KST2 121306Z 01005KT 03/M02 A304 RMK A01 T00341019  RH  068%=      5-min Rain = 0
KST2 121307Z 00005KT 04/M02 A304 RMK A01 T00351018  RH  068%=      5-min Rain = 0
KST2 121308Z 00005KT 04/M02 A304 RMK A01 T00351018  RH  068%=      5-min Rain = 0
KST2 121309Z 01005KT 04/M02 A304 RMK A01 T00361017  RH  068%=      5-min Rain = 0
KST2 121310Z 01006KT 04/M02 A304 RMK A01 T00361017  RH  068%=      5-min Rain = 0
KST2 121311Z 01005KT 04/M02 A304 RMK A01 T00361017  RH  069%=      5-min Rain = 0
KST2 121312Z 01006KT 04/M02 A304 RMK A01 T00361017  RH  068%=      5-min Rain = 0
KST2 121313Z 01006KT 04/M02 A304 RMK A01 T00361017  RH  068%=      5-min Rain = 0
KST2 121314Z 01006KT 04/M02 A304 RMK A01 T00361017  RH  068%=      5-min Rain = 0
KST2 121315Z 01006KT 04/M02 A304 RMK A01 T00361017  RH  068%=      5-min Rain = 0
KST2 121316Z 01006KT 04/M02 A304 RMK A01 T00361017  RH  068%=      5-min Rain = 0
KST2 121317Z 01005KT 04/M02 A304 RMK A01 T00361016  RH  068%=      5-min Rain = 0
KST2 121318Z 01005KT 04/M02 A304 RMK A01 T00361016  RH  068%=      5-min Rain = 0
KST2 121319Z 01006KT 04/M02 A304 RMK A01 T00371016  RH  068%=      5-min Rain = 0
KST2 121320Z 02006KT 04/M02 A304 RMK A01 T00371016  RH  068%=      5-min Rain = 0
KST2 121321Z 02006KT 04/M02 A304 RMK A01 T00371017  RH  068%=      5-min Rain = 0
KST2 121322Z 01006KT 04/M02 A304 RMK A01 T00371016  RH  068%=      5-min Rain = 0
KST2 121323Z 02006KT 04/M02 A304 RMK A01 T00371016  RH  068%=      5-min Rain = 0
KST2 121324Z 02006KT 04/M02 A304 RMK A01 T00371017  RH  068%=      5-min Rain = 0
KST2 121325Z 02006KT 04/M02 A304 RMK A01 T00371016  RH  068%=      5-min Rain = 0
KST2 121326Z 02007KT 04/M02 A304 RMK A01 T00371017  RH  068%=      5-min Rain = 0
KST2 121327Z 02006KT 04/M02 A3041 RMK A01 T00371017  RH  068%=      5-min Rain = 0
KST2 121328Z 02007KT 04/M02 A3041 RMK A01 T00371017  RH  068%=      5-min Rain = 0
KST2 121329Z 01006KT 04/M02 A3041 RMK A01 T00371017  RH  068%=      5-min Rain = 0
KST2 121330Z 01006KT 04/M02 A3041 RMK A01 T00371017  RH  068%=      5-min Rain = 0
KST2 121331Z 01006KT 04/M02 A3041 RMK A01 T00371017  RH  068%=      5-min Rain = 0
KST2 121332Z 01006KT 04/M02 A3041 RMK A01 T00371016  RH  068%=      5-min Rain = 0
KST2 121333Z 01006KT 04/M02 A3041 RMK A01 T00371016  RH  068%=      5-min Rain = 0
KST2 121334Z 01007KT 04/M02 A3041 RMK A01 T00371016  RH  068%=      5-min Rain = 0
KST2 121335Z 02007KT 04/M02 A3041 RMK A01 T00381015  RH  068%=      5-min Rain = 0
KST2 121336Z 02006KT 04/M02 A3041 RMK A01 T00381016  RH  068%=      5-min Rain = 0
KST2 121337Z 02006KT 04/M02 A3041 RMK A01 T00381015  RH  068%=      5-min Rain = 0
KST2 121338Z 02007KT 04/M02 A3041 RMK A01 T00391015  RH  068%=      5-min Rain = 0
KST2 121339Z 02007KT 04/M02 A3041 RMK A01 T00391015  RH  068%=      5-min Rain = 0
KST2 121340Z 01007KT 04/M02 A3041 RMK A01 T00391015  RH  068%=      5-min Rain = 0
KST2 121341Z 01007KT 04/M02 A3041 RMK A01 T00391016  RH  068%=      5-min Rain = 0
KST2 121342Z 01006KT 04/M02 A3041 RMK A01 T00391016  RH  067%=      5-min Rain = 0
KST2 121343Z 01006KT 04/M02 A3041 RMK A01 T00391016  RH  067%=      5-min Rain = 0
KST2 121344Z 02006KT 04/M02 A3041 RMK A01 T00391016  RH  067%=      5-min Rain = 0
KST2 121345Z 01005KT 04/M02 A3041 RMK A01 T00391016  RH  067%=      5-min Rain = 0
KST2 121346Z 01005KT 04/M02 A3041 RMK A01 T00391016  RH  067%=      5-min Rain = 0
KST2 121347Z 01005KT 04/M02 A3041 RMK A01 T00391016  RH  067%=      5-min Rain = 0
KST2 121348Z 01005KT 04/M02 A3041 RMK A01 T00401016  RH  067%=      5-min Rain = 0
KST2 121349Z 01005KT 04/M02 A3041 RMK A01 T00401016  RH  067%=      5-min Rain = 0
KST2 121350Z 00005KT 04/M02 A3041 RMK A01 T00401016  RH  067%=      5-min Rain = 0
KST2 121351Z 01005KT 04/M02 A3041 RMK A01 T00401016  RH  067%=      5-min Rain = 0
KST2 121352Z 01005KT 04/M02 A3041 RMK A01 T00401016  RH  067%=      5-min Rain = 0
KST2 121353Z 01005KT 04/M02 A3041 RMK A01 T00401017  RH  066%=      5-min Rain = 0
KST2 121354Z 01005KT 04/M02 A3041 RMK A01 T00401017  RH  066%=      5-min Rain = 0
KST2 121355Z 01006KT 04/M02 A3041 RMK A01 T00401017  RH  066%=      5-min Rain = 0
KST2 121356Z 02006KT 04/M02 A3041 RMK A01 T00411016  RH  066%=      5-min Rain = 0
KST2 121357Z 02006KT 04/M02 A3041 RMK A01 T00411017  RH  066%=      5-min Rain = 0
KST2 121358Z 02006KT 04/M02 A3041 RMK A01 T00421017  RH  066%=      5-min Rain = 0
KST2 121359Z 01006KT 04/M02 A3041 RMK A01 T00411017  RH  066%=      5-min Rain = 0
KST2 121400Z 01007KT 04/M02 A3041 RMK A01 T00411016  RH  066%=      5-min Rain = 0
KST2 121401Z 01006KT 04/M02 A3042 RMK A01 T00421016  RH  066%=      5-min Rain = 0
KST2 121402Z 01005KT 04/M02 A3042 RMK A01 T00411016  RH  066%=      5-min Rain = 0
KST2 121403Z 01006KT 04/M02 A3042 RMK A01 T00411016  RH  066%=      5-min Rain = 0
KST2 121404Z 01005KT 04/M02 A3042 RMK A01 T00411016  RH  066%=      5-min Rain = 0
KST2 121405Z 01005KT 04/M02 A3042 RMK A01 T00421015  RH  066%=      5-min Rain = 0
KST2 121406Z 02005KT 04/M02 A3042 RMK A01 T00411015  RH  066%=      5-min Rain = 0
KST2 121407Z 02005KT 04/M02 A3042 RMK A01 T00411015  RH  067%=      5-min Rain = 0
KST2 121408Z 02005KT 04/M02 A3042 RMK A01 T00411016  RH  066%=      5-min Rain = 0
KST2 121409Z 03004KT 04/M02 A3042 RMK A01 T00401016  RH  067%=      5-min Rain = 0
KST2 121410Z 02005KT 04/M02 A3042 RMK A01 T00401016  RH  067%=      5-min Rain = 0
KST2 121411Z 03005KT 04/M02 A3042 RMK A01 T00401016  RH  067%=      5-min Rain = 0
KST2 121412Z 02004KT 04/M02 A3042 RMK A01 T00401015  RH  067%=      5-min Rain = 0
KST2 121413Z 02004KT 04/M02 A3042 RMK A01 T00411015  RH  067%=      5-min Rain = 0
KST2 121414Z 02004KT 04/M02 A3042 RMK A01 T00411015  RH  067%=      5-min Rain = 0
KST2 121415Z 02004KT 04/M02 A3042 RMK A01 T00401016  RH  067%=      5-min Rain = 0
KST2 121416Z 02004KT 04/M01 A3042 RMK A01 T00401014  RH  068%=      5-min Rain = 0
KST2 121417Z 02004KT 04/M02 A3042 RMK A01 T00401015  RH  067%=      5-min Rain = 0
KST2 121418Z 02004KT 04/M01 A3042 RMK A01 T00401014  RH  067%=      5-min Rain = 0
KST2 121419Z 02004KT 04/M01 A3042 RMK A01 T00421012  RH  068%=      5-min Rain = 0
KST2 121420Z 02005KT 04/M01 A3042 RMK A01 T00431012  RH  067%=      5-min Rain = 0
KST2 121421Z 02004KT 04/M01 A3043 RMK A01 T00431014  RH  067%=      5-min Rain = 0
KST2 121422Z 02005KT 04/M01 A3043 RMK A01 T00431014  RH  067%=      5-min Rain = 0
KST2 121423Z 02005KT 04/M01 A3043 RMK A01 T00421014  RH  067%=      5-min Rain = 0
KST2 121424Z 02005KT 04/M01 A3043 RMK A01 T00421013  RH  067%=      5-min Rain = 0
KST2 121425Z 02005KT 04/M01 A3043 RMK A01 T00431012  RH  068%=      5-min Rain = 0
KST2 121426Z 01005KT 04/M01 A3043 RMK A01 T00431012  RH  067%=      5-min Rain = 0
KST2 121427Z 02005KT 04/M01 A3043 RMK A01 T00441011  RH  068%=      5-min Rain = 0
KST2 121428Z 02006KT 04/M01 A3043 RMK A01 T00441010  RH  068%=      5-min Rain = 0
KST2 121429Z 02007KT 05/M01 A3043 RMK A01 T00451009  RH  068%=      5-min Rain = 0
KST2 121430Z 02006KT 05/M01 A3043 RMK A01 T00451010  RH  068%=      5-min Rain = 0
KST2 121431Z 01006KT 05/M01 A3043 RMK A01 T00451009  RH  068%=      5-min Rain = 0
KST2 121432Z 01006KT 05/M01 A3043 RMK A01 T00451010  RH  068%=      5-min Rain = 0
KST2 121433Z 00005KT 05/M01 A3043 RMK A01 T00451010  RH  067%=      5-min Rain = 0
KST2 121434Z 01007KT 05/M01 A3043 RMK A01 T00461010  RH  067%=      5-min Rain = 0
KST2 121435Z 00008KT 05/M01 A3043 RMK A01 T00471011  RH  066%=      5-min Rain = 0
KST2 121436Z 01008KT 05/M01 A3043 RMK A01 T00471011  RH  066%=      5-min Rain = 0
KST2 121437Z 00008KT 05/M01 A3043 RMK A01 T00471011  RH  066%=      5-min Rain = 0
KST2 121438Z 00008KT 05/M01 A3043 RMK A01 T00481011  RH  066%=      5-min Rain = 0
KST2 121439Z 01008KT 05/M01 A3043 RMK A01 T00481012  RH  065%=      5-min Rain = 0
KST2 121440Z 02008KT 05/M01 A3044 RMK A01 T00481012  RH  065%=      5-min Rain = 0
KST2 121441Z 02008KT 05/M01 A3044 RMK A01 T00491010  RH  065%=      5-min Rain = 0
KST2 121442Z 02009KT 05/M01 A3043 RMK A01 T00501010  RH  065%=      5-min Rain = 0
KST2 121443Z 01008KT 05/M01 A3043 RMK A01 T00511011  RH  064%=      5-min Rain = 0
KST2 121444Z 01009KT 05/M01 A3043 RMK A01 T00501011  RH  064%=      5-min Rain = 0
KST2 121445Z 02009KT 05/M01 A3043 RMK A01 T00501010  RH  065%=      5-min Rain = 0
KST2 121446Z 01008KT 05/M01 A3043 RMK A01 T00511011  RH  064%=      5-min Rain = 0
KST2 121447Z 00007KT 05/M01 A3043 RMK A01 T00511011  RH  064%=      5-min Rain = 0
KST2 121448Z 00007KT 05/M01 A3043 RMK A01 T00511012  RH  064%=      5-min Rain = 0
KST2 121449Z 01008KT 05/M01 A3044 RMK A01 T00501013  RH  064%=      5-min Rain = 0
KST2 121450Z 01008KT 05/M01 A3044 RMK A01 T00501012  RH  064%=      5-min Rain = 0
KST2 121451Z 01008KT 05/M01 A3044 RMK A01 T00511010  RH  065%=      5-min Rain = 0
KST2 121452Z 01007KT 05/M01 A3044 RMK A01 T00521011  RH  064%=      5-min Rain = 0
KST2 121453Z 02006KT 05/M01 A3044 RMK A01 T00521012  RH  063%=      5-min Rain = 0
KST2 121454Z 01006KT 05/M01 A3044 RMK A01 T00521012  RH  063%=      5-min Rain = 0
KST2 121455Z 01008KT 05/M01 A3044 RMK A01 T00521012  RH  063%=      5-min Rain = 0
KST2 121456Z 02007KT 05/M01 A3044 RMK A01 T00521012  RH  063%=      5-min Rain = 0
KST2 121457Z 01007KT 05/M01 A3044 RMK A01 T00531013  RH  063%=      5-min Rain = 0
KST2 121458Z 01008KT 05/M01 A3044 RMK A01 T00531012  RH  063%=      5-min Rain = 0
KST2 121459Z 00008KT 05/M01 A3044 RMK A01 T00541012  RH  062%=      5-min Rain = 0
KST2 121500Z 00008KT 06/M01 A3044 RMK A01 T00551011  RH  063%=      5-min Rain = 0
KST2 121501Z 00010KT 06/M01 A3044 RMK A01 T00571010  RH  062%=      5-min Rain = 0
KST2 121502Z 01010KT 06/M01 A3044 RMK A01 T00581012  RH  061%=      5-min Rain = 0
KST2 121503Z 01009KT 06/M02 A3044 RMK A01 T00551015  RH  061%=      5-min Rain = 0
KST2 121504Z 01010KT 05/M02 A3044 RMK A01 T00541015  RH  061%=      5-min Rain = 0
KST2 121505Z 01010KT 05/M02 A3044 RMK A01 T00541015  RH  061%=      5-min Rain = 0
KST2 121506Z 02009KT 06/M02 A3044 RMK A01 T00551015  RH  061%=      5-min Rain = 0
KST2 121507Z 02009KT 06/M02 A3044 RMK A01 T00551015  RH  061%=      5-min Rain = 0
KST2 121508Z 01010KT 06/M01 A3044 RMK A01 T00551013  RH  062%=      5-min Rain = 0
KST2 121509Z 01009KT 06/M01 A3044 RMK A01 T00571012  RH  061%=      5-min Rain = 0
KST2 121510Z 01009KT 06/M01 A3044 RMK A01 T00571013  RH  060%=      5-min Rain = 0
KST2 121511Z 01011KT 06/M01 A3044 RMK A01 T00581013  RH  061%=      5-min Rain = 0
KST2 121512Z 01010KT 06/M01 A3044 RMK A01 T00591013  RH  060%=      5-min Rain = 0
KST2 121513Z 01009KT 06/M01 A3044 RMK A01 T00591012  RH  060%=      5-min Rain = 0
KST2 121514Z 02009KT 06/M01 A3044 RMK A01 T00611012  RH  060%=      5-min Rain = 0
KST2 121515Z 01011KT 06/M01 A3044 RMK A01 T00611011  RH  060%=      5-min Rain = 0
KST2 121516Z 01011KT 06/M01 A3044 RMK A01 T00611012  RH  060%=      5-min Rain = 0
KST2 121517Z 03008KT 06/M01 A3044 RMK A01 T00601013  RH  059%=      5-min Rain = 0
KST2 121518Z 00009KT 06/M01 A3044 RMK A01 T00611011  RH  060%=      5-min Rain = 0
KST2 121519Z 00009KT 06/M01 A3044 RMK A01 T00611012  RH  060%=      5-min Rain = 0
KST2 121520Z 02008KT 06/M01 A3044 RMK A01 T00621010  RH  060%=      5-min Rain = 0
KST2 121521Z 02009KT 06/M01 A3044 RMK A01 T00631012  RH  059%=      5-min Rain = 0
KST2 121522Z 01010KT 06/M02 A3044 RMK A01 T00611015  RH  058%=      5-min Rain = 0
KST2 121523Z 00009KT 06/M01 A3044 RMK A01 T00611013  RH  059%=      5-min Rain = 0
KST2 121524Z 36010KT 06/M01 A3044 RMK A01 T00611013  RH  059%=      5-min Rain = 0
KST2 121525Z 01011KT 06/M01 A3044 RMK A01 T00601014  RH  059%=      5-min Rain = 0
KST2 121526Z 02010KT 06/M01 A3044 RMK A01 T00601013  RH  059%=      5-min Rain = 0
KST2 121527Z 02008KT 06/M02 A3044 RMK A01 T00591015  RH  059%=      5-min Rain = 0
KST2 121528Z 02009KT 06/M01 A3044 RMK A01 T00591014  RH  059%=      5-min Rain = 0
KST2 121529Z 02009KT 06/M01 A3044 RMK A01 T00591013  RH  060%=      5-min Rain = 0
KST2 121530Z 03008KT 06/M01 A3044 RMK A01 T00601014  RH  059%=      5-min Rain = 0
KST2 121531Z 01009KT 06/M01 A3044 RMK A01 T00601013  RH  059%=      5-min Rain = 0
KST2 121532Z 01008KT 06/M01 A3044 RMK A01 T00611014  RH  059%=      5-min Rain = 0
KST2 121533Z 01008KT 06/M02 A3044 RMK A01 T00591015  RH  059%=      5-min Rain = 0
KST2 121534Z 02008KT 06/M02 A3044 RMK A01 T00581015  RH  059%=      5-min Rain = 0
KST2 121535Z 02010KT 06/M02 A3044 RMK A01 T00581015  RH  059%=      5-min Rain = 0
KST2 121536Z 02009KT 06/M02 A3044 RMK A01 T00591015  RH  059%=      5-min Rain = 0
KST2 121537Z 04009KT 06/M01 A3044 RMK A01 T00601014  RH  059%=      5-min Rain = 0
KST2 121538Z 04010KT 06/M01 A3044 RMK A01 T00611014  RH  058%=      5-min Rain = 0
KST2 121539Z 03009KT 06/M01 A3044 RMK A01 T00611014  RH  058%=      5-min Rain = 0
KST2 121540Z 04009KT 06/M01 A3044 RMK A01 T00611013  RH  059%=      5-min Rain = 0
KST2 121541Z 04008KT 06/M01 A3044 RMK A01 T00621013  RH  058%=      5-min Rain = 0
KST2 121542Z 03009KT 06/M01 A3044 RMK A01 T00641012  RH  058%=      5-min Rain = 0
KST2 121543Z 02009KT 07/M01 A3044 RMK A01 T00661012  RH  058%=      5-min Rain = 0
KST2 121544Z 02008KT 07/M01 A3044 RMK A01 T00671012  RH  057%=      5-min Rain = 0
KST2 121545Z 02007KT 07/M01 A3044 RMK A01 T00661013  RH  057%=      5-min Rain = 0
KST2 121546Z 04008KT 07/M01 A3044 RMK A01 T00661012  RH  057%=      5-min Rain = 0
KST2 121547Z 02007KT 07/M01 A3044 RMK A01 T00691010  RH  057%=      5-min Rain = 0
KST2 121548Z 03009KT 07/M01 A3044 RMK A01 T00701011  RH  056%=      5-min Rain = 0
KST2 121549Z 02009KT 07/M01 A3044 RMK A01 T00701011  RH  057%=      5-min Rain = 0
KST2 121550Z 03009KT 07/M01 A3044 RMK A01 T00711012  RH  056%=      5-min Rain = 0
KST2 121551Z 03008KT 07/M01 A3044 RMK A01 T00701010  RH  057%=      5-min Rain = 0
KST2 121552Z 02007KT 07/M01 A3044 RMK A01 T00721011  RH  056%=      5-min Rain = 0
KST2 121553Z 03006KT 07/M01 A3044 RMK A01 T00721011  RH  056%=      5-min Rain = 0
KST2 121554Z 03008KT 07/M01 A3044 RMK A01 T00731009  RH  056%=      5-min Rain = 0
KST2 121555Z 05010KT 07/M01 A3044 RMK A01 T00731012  RH  055%=      5-min Rain = 0
KST2 121556Z 05009KT 07/M01 A3044 RMK A01 T00731013  RH  055%=      5-min Rain = 0
KST2 121557Z 05006KT 07/M01 A3044 RMK A01 T00721014  RH  054%=      5-min Rain = 0
KST2 121558Z 02008KT 07/M02 A3044 RMK A01 T00721015  RH  054%=      5-min Rain = 0
KST2 121559Z 05008KT 07/M01 A3043 RMK A01 T00711014  RH  054%=      5-min Rain = 0
KST2 121600Z 04009KT 07/M01 A3043 RMK A01 T00731014  RH  054%=      5-min Rain = 0
KST2 121601Z 04009KT 07/M01 A3043 RMK A01 T00731014  RH  054%=      5-min Rain = 0
KST2 121602Z 03009KT 07/M02 A3043 RMK A01 T00741015  RH  053%=      5-min Rain = 0
KST2 121603Z 03012KT 08/M01 A3044 RMK A01 T00771012  RH  053%=      5-min Rain = 0
KST2 121604Z 03011KT 08/M01 A3044 RMK A01 T00791014  RH  052%=      5-min Rain = 0
KST2 121605Z 03010KT 08/M02 A3044 RMK A01 T00791015  RH  052%=      5-min Rain = 0
KST2 121606Z 05010KT 08/M02 A3044 RMK A01 T00771016  RH  052%=      5-min Rain = 0
KST2 121607Z 04008KT 07/M02 A3044 RMK A01 T00741017  RH  052%=      5-min Rain = 0
KST2 121608Z 05007KT 07/M02 A3043 RMK A01 T00731016  RH  053%=      5-min Rain = 0
KST2 121609Z 05009KT 08/M01 A3043 RMK A01 T00771011  RH  054%=      5-min Rain = 0
KST2 121610Z 05008KT 08/M01 A3043 RMK A01 T00791014  RH  052%=      5-min Rain = 0
KST2 121611Z 04008KT 08/M02 A3043 RMK A01 T00781015  RH  052%=      5-min Rain = 0
KST2 121612Z 04010KT 08/M01 A3044 RMK A01 T00821009  RH  053%=      5-min Rain = 0
KST2 121613Z 03010KT 08/M01 A3044 RMK A01 T00831012  RH  051%=      5-min Rain = 0
KST2 121614Z 03007KT 08/M02 A3043 RMK A01 T00801015  RH  051%=      5-min Rain = 0
KST2 121615Z 03008KT 08/M02 A3043 RMK A01 T00791015  RH  052%=      5-min Rain = 0
KST2 121616Z 02009KT 08/M02 A3043 RMK A01 T00781016  RH  052%=      5-min Rain = 0
KST2 121617Z 03012KT 08/M02 A3043 RMK A01 T00801015  RH  051%=      5-min Rain = 0
KST2 121618Z 02010KT 08/M02 A3043 RMK A01 T00811018  RH  050%=      5-min Rain = 0
KST2 121619Z 02011KT 08/M02 A3043 RMK A01 T00801020  RH  049%=      5-min Rain = 0
KST2 121620Z 05009KT 08/M02 A3044 RMK A01 T00801017  RH  050%=      5-min Rain = 0
KST2 121621Z 01008KT 08/M02 A3043 RMK A01 T00811017  RH  050%=      5-min Rain = 0
KST2 121622Z 03011KT 08/M02 A3044 RMK A01 T00811017  RH  050%=      5-min Rain = 0
KST2 121623Z 03008KT 08/M02 A3044 RMK A01 T00811019  RH  049%=      5-min Rain = 0
KST2 121624Z 01009KT 08/M02 A3044 RMK A01 T00801017  RH  050%=      5-min Rain = 0
KST2 121625Z 01009KT 08/M02 A3044 RMK A01 T00801017  RH  051%=      5-min Rain = 0
KST2 121626Z 00007KT 08/M02 A3044 RMK A01 T00801017  RH  050%=      5-min Rain = 0
KST2 121627Z 01005KT 08/M02 A3043 RMK A01 T00781016  RH  051%=      5-min Rain = 0
KST2 121628Z 04007KT 08/M02 A3043 RMK A01 T00781017  RH  051%=      5-min Rain = 0
KST2 121629Z 05011KT 08/M01 A3044 RMK A01 T00801014  RH  052%=      5-min Rain = 0
KST2 121630Z 05009KT 08/M02 A3044 RMK A01 T00811016  RH  050%=      5-min Rain = 0
KST2 121631Z 05009KT 08/M02 A3044 RMK A01 T00811015  RH  051%=      5-min Rain = 0
KST2 121632Z 06009KT 08/M02 A3044 RMK A01 T00811015  RH  051%=      5-min Rain = 0
KST2 121633Z 05009KT 08/M02 A3043 RMK A01 T00811016  RH  050%=      5-min Rain = 0
KST2 121634Z 03009KT 08/M01 A3043 RMK A01 T00831014  RH  050%=      5-min Rain = 0
KST2 121635Z 04010KT 08/M02 A3044 RMK A01 T00841016  RH  049%=      5-min Rain = 0
KST2 121636Z 03011KT 08/M02 A3044 RMK A01 T00831016  RH  050%=      5-min Rain = 0
KST2 121637Z 02009KT 08/M02 A3044 RMK A01 T00831017  RH  049%=      5-min Rain = 0
KST2 121638Z 02007KT 08/M02 A3044 RMK A01 T00831017  RH  049%=      5-min Rain = 0
KST2 121639Z 03008KT 08/M02 A3044 RMK A01 T00841015  RH  050%=      5-min Rain = 0
KST2 121640Z 04009KT 08/M02 A3044 RMK A01 T00841018  RH  048%=      5-min Rain = 0
KST2 121641Z 02010KT 08/M02 A3044 RMK A01 T00801020  RH  049%=      5-min Rain = 0
KST2 121642Z 03009KT 08/M02 A3044 RMK A01 T00781018  RH  050%=      5-min Rain = 0
KST2 121643Z 03008KT 08/M02 A3044 RMK A01 T00781017  RH  051%=      5-min Rain = 0
KST2 121644Z 01006KT 08/M02 A3044 RMK A01 T00781017  RH  051%=      5-min Rain = 0
KST2 121645Z 02006KT 08/M02 A3043 RMK A01 T00781016  RH  052%=      5-min Rain = 0
KST2 121646Z 04009KT 08/M01 A3044 RMK A01 T00831010  RH  052%=      5-min Rain = 0
KST2 121647Z 04007KT 09/M02 A3044 RMK A01 T00861015  RH  049%=      5-min Rain = 0
KST2 121648Z 04009KT 08/M02 A3044 RMK A01 T00821018  RH  049%=      5-min Rain = 0
KST2 121649Z 04009KT 08/M02 A3044 RMK A01 T00811016  RH  050%=      5-min Rain = 0
KST2 121650Z 04009KT 08/M02 A3044 RMK A01 T00831015  RH  050%=      5-min Rain = 0
KST2 121651Z 03009KT 08/M02 A3044 RMK A01 T00821016  RH  050%=      5-min Rain = 0
KST2 121652Z 02007KT 08/M02 A3043 RMK A01 T00821016  RH  050%=      5-min Rain = 0
KST2 121653Z 36004KT 08/M02 A3043 RMK A01 T00801016  RH  051%=      5-min Rain = 0
KST2 121654Z 04007KT 08/M01 A3043 RMK A01 T00801014  RH  051%=      5-min Rain = 0
KST2 121655Z 02009KT 08/M02 A3043 RMK A01 T00821015  RH  050%=      5-min Rain = 0
KST2 121656Z 00008KT 09/M02 A3043 RMK A01 T00851015  RH  050%=      5-min Rain = 0
KST2 121657Z 01007KT 09/M02 A3043 RMK A01 T00861016  RH  049%=      5-min Rain = 0
KST2 121658Z 05008KT 09/M01 A3043 RMK A01 T00851014  RH  050%=      5-min Rain = 0
KST2 121659Z 04009KT 09/M01 A3043 RMK A01 T00891013  RH  049%=      5-min Rain = 0
KST2 121700Z 03007KT 09/M02 A3043 RMK A01 T00881018  RH  047%=      5-min Rain = 0
KST2 121701Z 02007KT 09/M02 A3043 RMK A01 T00861017  RH  048%=      5-min Rain = 0
KST2 121702Z 00006KT 09/M02 A3043 RMK A01 T00861017  RH  048%=      5-min Rain = 0
KST2 121703Z 03009KT 08/M02 A3043 RMK A01 T00841018  RH  049%=      5-min Rain = 0
KST2 121704Z 04008KT 09/M02 A3043 RMK A01 T00851017  RH  049%=      5-min Rain = 0
KST2 121705Z 05009KT 09/M02 A3043 RMK A01 T00851016  RH  049%=      5-min Rain = 0
KST2 121706Z 05010KT 09/M02 A3043 RMK A01 T00871015  RH  049%=      5-min Rain = 0
KST2 121707Z 05008KT 09/M02 A3043 RMK A01 T00871016  RH  048%=      5-min Rain = 0
KST2 121708Z 04008KT 09/M02 A3043 RMK A01 T00861016  RH  049%=      5-min Rain = 0
KST2 121709Z 03006KT 09/M01 A3043 RMK A01 T00881012  RH  049%=      5-min Rain = 0
KST2 121710Z 03008KT 09/M01 A3043 RMK A01 T00931011  RH  048%=      5-min Rain = 0
KST2 121711Z 02010KT 10/M01 A3043 RMK A01 T00951011  RH  048%=      5-min Rain = 0
KST2 121712Z 02009KT 10/M02 A3043 RMK A01 T00961015  RH  046%=      5-min Rain = 0
KST2 121713Z 01009KT 09/M02 A3043 RMK A01 T00921016  RH  047%=      5-min Rain = 0
KST2 121714Z 00009KT 09/M02 A3043 RMK A01 T00911016  RH  047%=      5-min Rain = 0
KST2 121715Z 36004KT 09/M02 A3043 RMK A01 T00891018  RH  047%=      5-min Rain = 0
KST2 121716Z 03005KT 09/M02 A3043 RMK A01 T00881016  RH  048%=      5-min Rain = 0
KST2 121717Z 04005KT 09/M02 A3043 RMK A01 T00871019  RH  047%=      5-min Rain = 0
KST2 121718Z 04007KT 09/M02 A3043 RMK A01 T00861017  RH  048%=      5-min Rain = 0
KST2 121719Z 02007KT 09/M01 A3043 RMK A01 T00911013  RH  048%=      5-min Rain = 0
KST2 121720Z 03005KT 09/M02 A3043 RMK A01 T00941016  RH  046%=      5-min Rain = 0
KST2 121721Z 01009KT 09/M02 A3043 RMK A01 T00941015  RH  047%=      5-min Rain = 0
KST2 121722Z 02007KT 09/M02 A3043 RMK A01 T00941018  RH  046%=      5-min Rain = 0
KST2 121723Z 03007KT 09/M02 A3043 RMK A01 T00911018  RH  046%=      5-min Rain = 0
KST2 121724Z 01006KT 09/M02 A3043 RMK A01 T00921017  RH  046%=      5-min Rain = 0
KST2 121725Z 04005KT 09/M02 A3043 RMK A01 T00911018  RH  047%=      5-min Rain = 0
KST2 121726Z 07008KT 09/M02 A3042 RMK A01 T00911016  RH  047%=      5-min Rain = 0
KST2 121727Z 05005KT 09/M02 A3042 RMK A01 T00921017  RH  047%=      5-min Rain = 0
KST2 121728Z 04005KT 09/M02 A3042 RMK A01 T00901018  RH  047%=      5-min Rain = 0
KST2 121729Z 01009KT 09/M01 A3042 RMK A01 T00931014  RH  047%=      5-min Rain = 0
KST2 121730Z 02008KT 09/M02 A3042 RMK A01 T00921016  RH  047%=      5-min Rain = 0
KST2 121731Z 02007KT 09/M02 A3042 RMK A01 T00931015  RH  047%=      5-min Rain = 0
KST2 121732Z 02004KT 09/M02 A3042 RMK A01 T00921017  RH  047%=      5-min Rain = 0
KST2 121733Z 01006KT 09/M02 A3042 RMK A01 T00911016  RH  047%=      5-min Rain = 0
KST2 121734Z 00005KT 09/M02 A3042 RMK A01 T00911015  RH  047%=      5-min Rain = 0
KST2 121735Z 02007KT 09/M02 A3042 RMK A01 T00911016  RH  047%=      5-min Rain = 0
KST2 121736Z 03010KT 09/M01 A3042 RMK A01 T00941014  RH  047%=      5-min Rain = 0
KST2 121737Z 05009KT 10/M01 A3042 RMK A01 T00981014  RH  045%=      5-min Rain = 0
KST2 121738Z 03009KT 10/M02 A3042 RMK A01 T00971015  RH  046%=      5-min Rain = 0
KST2 121739Z 03008KT 10/M02 A3042 RMK A01 T00991015  RH  045%=      5-min Rain = 0
KST2 121740Z 03007KT 10/M02 A3042 RMK A01 T00961017  RH  045%=      5-min Rain = 0
KST2 121741Z 05007KT 09/M02 A3042 RMK A01 T00931017  RH  046%=      5-min Rain = 0
KST2 121742Z 06007KT 09/M02 A3042 RMK A01 T00931015  RH  047%=      5-min Rain = 0
KST2 121743Z 06003KT 09/M02 A3042 RMK A01 T00931016  RH  047%=      5-min Rain = 0
KST2 121744Z 07003KT 09/M02 A3042 RMK A01 T00921015  RH  047%=      5-min Rain = 0
KST2 121745Z 03007KT 09/M01 A3042 RMK A01 T00941013  RH  047%=      5-min Rain = 0
KST2 121746Z 01006KT 10/M02 A3042 RMK A01 T00971016  RH  045%=      5-min Rain = 0
KST2 121747Z 35007KT 10/M02 A3042 RMK A01 T00951016  RH  046%=      5-min Rain = 0
KST2 121748Z 35006KT 10/M02 A3042 RMK A01 T00951015  RH  046%=      5-min Rain = 0
KST2 121749Z 01004KT 10/M01 A3042 RMK A01 T00961014  RH  046%=      5-min Rain = 0
KST2 121750Z 02005KT 10/M01 A3041 RMK A01 T00961014  RH  046%=      5-min Rain = 0
KST2 121751Z 03007KT 10/M01 A3041 RMK A01 T00971013  RH  046%=      5-min Rain = 0
KST2 121752Z 02006KT 10/M01 A3041 RMK A01 T00991013  RH  046%=      5-min Rain = 0
KST2 121753Z 36009KT 10/M01 A3041 RMK A01 T01001011  RH  046%=      5-min Rain = 0
KST2 121754Z 00006KT 10/M01 A3041 RMK A01 T01021014  RH  045%=      5-min Rain = 0
KST2 121755Z 01007KT 10/M01 A3041 RMK A01 T00991014  RH  045%=      5-min Rain = 0
KST2 121756Z 02005KT 10/M01 A3041 RMK A01 T00981014  RH  045%=      5-min Rain = 0
KST2 121757Z 02006KT 10/M01 A3041 RMK A01 T00991014  RH  045%=      5-min Rain = 0
KST2 121758Z 04005KT 10/M02 A3041 RMK A01 T01001016  RH  044%=      5-min Rain = 0
KST2 121759Z 02005KT 10/M02 A3041 RMK A01 T00991016  RH  045%=      5-min Rain = 0
KST2 121800Z 02005KT 10/M02 A3041 RMK A01 T01001016  RH  044%=      5-min Rain = 0
KST2 121801Z 01009KT 10/M01 A3041 RMK A01 T01031012  RH  045%=      5-min Rain = 0
KST2 121802Z 01009KT 11/M01 A3041 RMK A01 T01081013  RH  043%=      5-min Rain = 0
KST2 121803Z 36007KT 11/M02 A304 RMK A01 T01071017  RH  042%=      5-min Rain = 0
KST2 121804Z 00006KT 11/M01 A304 RMK A01 T01071013  RH  043%=      5-min Rain = 0
KST2 121805Z 01004KT 11/M01 A304 RMK A01 T01111010  RH  043%=      5-min Rain = 0
KST2 121806Z 01007KT 11/M01 A304 RMK A01 T01121012  RH  042%=      5-min Rain = 0
KST2 121807Z 00006KT 11/M01 A304 RMK A01 T01121014  RH  042%=      5-min Rain = 0
KST2 121808Z 00006KT 11/M02 A304 RMK A01 T01101016  RH  041%=      5-min Rain = 0
KST2 121809Z 01006KT 11/M02 A304 RMK A01 T01091016  RH  042%=      5-min Rain = 0
KST2 121810Z 01009KT 11/M02 A304 RMK A01 T01091015  RH  042%=      5-min Rain = 0
KST2 121811Z 35009KT 11/M02 A304 RMK A01 T01081015  RH  042%=      5-min Rain = 0
KST2 121812Z 36008KT 11/M02 A3039 RMK A01 T01071016  RH  042%=      5-min Rain = 0
KST2 121813Z 03007KT 11/M02 A304 RMK A01 T01071015  RH  043%=      5-min Rain = 0
KST2 121814Z 03007KT 11/M02 A304 RMK A01 T01081015  RH  042%=      5-min Rain = 0
KST2 121815Z 02010KT 11/M01 A304 RMK A01 T01121013  RH  042%=      5-min Rain = 0
KST2 121816Z 02008KT 11/M02 A3039 RMK A01 T01121015  RH  041%=      5-min Rain = 0
KST2 121817Z 04010KT 11/M01 A3039 RMK A01 T01121014  RH  042%=      5-min Rain = 0
KST2 121818Z 04009KT 11/M02 A3039 RMK A01 T01141016  RH  040%=      5-min Rain = 0
KST2 121819Z 04007KT 11/M02 A3039 RMK A01 T01131016  RH  041%=      5-min Rain = 0
KST2 121820Z 04006KT 11/M02 A3039 RMK A01 T01091019  RH  041%=      5-min Rain = 0
KST2 121821Z 04007KT 11/M02 A3039 RMK A01 T01081017  RH  042%=      5-min Rain = 0
KST2 121822Z 04008KT 11/M01 A3039 RMK A01 T01111014  RH  042%=      5-min Rain = 0
KST2 121823Z 05007KT 11/M02 A3039 RMK A01 T01121017  RH  041%=      5-min Rain = 0
KST2 121824Z 03008KT 11/M02 A3039 RMK A01 T01121016  RH  041%=      5-min Rain = 0
KST2 121825Z 02009KT 11/M02 A3039 RMK A01 T01131016  RH  041%=      5-min Rain = 0
KST2 121826Z 01006KT 11/M02 A3039 RMK A01 T01141017  RH  040%=      5-min Rain = 0
KST2 121827Z 05008KT 11/M02 A3039 RMK A01 T01131016  RH  041%=      5-min Rain = 0
KST2 121828Z 05010KT 12/M02 A3039 RMK A01 T01151015  RH  040%=      5-min Rain = 0
KST2 121829Z 02010KT 12/M02 A3039 RMK A01 T01161015  RH  040%=      5-min Rain = 0
KST2 121830Z 02006KT 12/M01 A3038 RMK A01 T01161014  RH  040%=      5-min Rain = 0
KST2 121831Z 01006KT 12/M02 A3038 RMK A01 T01161016  RH  040%=      5-min Rain = 0
KST2 121832Z 05007KT 11/M02 A3038 RMK A01 T01141018  RH  040%=      5-min Rain = 0
KST2 121833Z 07008KT 11/M02 A3038 RMK A01 T01131018  RH  040%=      5-min Rain = 0
KST2 121834Z 06008KT 11/M02 A3038 RMK A01 T01121020  RH  040%=      5-min Rain = 0
KST2 121835Z 03008KT 11/M02 A3038 RMK A01 T01121019  RH  040%=      5-min Rain = 0
KST2 121836Z 02007KT 11/M02 A3038 RMK A01 T01121020  RH  040%=      5-min Rain = 0
KST2 121837Z 03011KT 11/M02 A3038 RMK A01 T01131016  RH  041%=      5-min Rain = 0
KST2 121838Z 04009KT 12/M02 A3038 RMK A01 T01151015  RH  040%=      5-min Rain = 0
KST2 121839Z 04009KT 12/M02 A3038 RMK A01 T01161016  RH  040%=      5-min Rain = 0
KST2 121840Z 04007KT 12/M02 A3038 RMK A01 T01151018  RH  039%=      5-min Rain = 0
KST2 121841Z 05007KT 11/M02 A3038 RMK A01 T01131019  RH  040%=      5-min Rain = 0
KST2 121842Z 02005KT 11/M02 A3038 RMK A01 T01141016  RH  040%=      5-min Rain = 0
KST2 121843Z 06006KT 12/M02 A3038 RMK A01 T01161016  RH  040%=      5-min Rain = 0
KST2 121844Z 05008G14KT 12/M02 A3037 RMK A01 T01161016  RH  040%=      5-min Rain = 0
KST2 121845Z 00010G15KT 12/M01 A3037 RMK A01 T01201012  RH  040%=      5-min Rain = 0
KST2 121846Z 36008KT 12/M01 A3037 RMK A01 T01231014  RH  039%=      5-min Rain = 0
KST2 121847Z 01007KT 12/M01 A3037 RMK A01 T01221014  RH  039%=      5-min Rain = 0
KST2 121848Z 02010KT 12/M01 A3038 RMK A01 T01231013  RH  039%=      5-min Rain = 0
KST2 121849Z 02007KT 13/M01 A3037 RMK A01 T01251013  RH  038%=      5-min Rain = 0
KST2 121850Z 02006KT 12/M02 A3037 RMK A01 T01241015  RH  038%=      5-min Rain = 0
KST2 121851Z 05007KT 12/M01 A3037 RMK A01 T01241014  RH  038%=      5-min Rain = 0
KST2 121852Z 03010KT 13/M01 A3037 RMK A01 T01251014  RH  038%=      5-min Rain = 0
KST2 121853Z 04008KT 13/M02 A3037 RMK A01 T01251016  RH  038%=      5-min Rain = 0
KST2 121854Z 04007KT 12/M02 A3037 RMK A01 T01211019  RH  038%=      5-min Rain = 0
KST2 121855Z 04009KT 12/M02 A3037 RMK A01 T01191018  RH  038%=      5-min Rain = 0
KST2 121856Z 04007KT 12/M02 A3037 RMK A01 T01201017  RH  038%=      5-min Rain = 0
KST2 121857Z 03009KT 12/M02 A3037 RMK A01 T01201017  RH  039%=      5-min Rain = 0
KST2 121858Z 03010KT 12/M02 A3037 RMK A01 T01211016  RH  038%=      5-min Rain = 0
KST2 121859Z 05008KT 12/M02 A3037 RMK A01 T01231016  RH  038%=      5-min Rain = 0
KST2 121900Z 06008KT 12/M02 A3037 RMK A01 T01221019  RH  037%=      5-min Rain = 0
KST2 121901Z 06008KT 12/M02 A3037 RMK A01 T01201019  RH  038%=      5-min Rain = 0
KST2 121902Z 05006KT 12/M02 A3036 RMK A01 T01221015  RH  038%=      5-min Rain = 0
KST2 121903Z 05006KT 12/M02 A3036 RMK A01 T01221019  RH  037%=      5-min Rain = 0
KST2 121904Z 05010KT 12/M02 A3036 RMK A01 T01211018  RH  038%=      5-min Rain = 0
KST2 121905Z 06010KT 12/M02 A3036 RMK A01 T01211018  RH  038%=      5-min Rain = 0
KST2 121906Z 05008KT 12/M02 A3036 RMK A01 T01211018  RH  038%=      5-min Rain = 0
KST2 121907Z 02010KT 12/M02 A3036 RMK A01 T01231016  RH  038%=      5-min Rain = 0
KST2 121908Z 02010KT 13/M02 A3036 RMK A01 T01261016  RH  037%=      5-min Rain = 0
KST2 121909Z 02008KT 13/M02 A3036 RMK A01 T01251018  RH  037%=      5-min Rain = 0
KST2 121910Z 01008KT 12/M02 A3035 RMK A01 T01241018  RH  037%=      5-min Rain = 0
KST2 121911Z 04009KT 12/M02 A3035 RMK A01 T01241017  RH  038%=      5-min Rain = 0
KST2 121912Z 05005KT 12/M02 A3035 RMK A01 T01241018  RH  037%=      5-min Rain = 0
KST2 121913Z 03005KT 12/M02 A3035 RMK A01 T01221019  RH  037%=      5-min Rain = 0
KST2 121914Z 03007KT 12/M02 A3035 RMK A01 T01221019  RH  038%=      5-min Rain = 0
KST2 121915Z 04008KT 12/M02 A3035 RMK A01 T01221018  RH  038%=      5-min Rain = 0
KST2 121916Z 04007KT 13/M02 A3035 RMK A01 T01251018  RH  037%=      5-min Rain = 0
KST2 121917Z 01011KT 13/M02 A3035 RMK A01 T01251020  RH  036%=      5-min Rain = 0
KST2 121918Z 04011KT 13/M02 A3035 RMK A01 T01271019  RH  036%=      5-min Rain = 0
KST2 121919Z 05011KT 13/M02 A3035 RMK A01 T01281020  RH  036%=      5-min Rain = 0
KST2 121920Z 04010KT 13/M02 A3035 RMK A01 T01321019  RH  035%=      5-min Rain = 0
KST2 121921Z 03009KT 13/M02 A3035 RMK A01 T01331021  RH  034%=      5-min Rain = 0
KST2 121922Z 04009KT 13/M02 A3035 RMK A01 T01301019  RH  035%=      5-min Rain = 0
KST2 121923Z 07007KT 13/M02 A3035 RMK A01 T01311019  RH  035%=      5-min Rain = 0
KST2 121924Z 04007KT 13/M02 A3035 RMK A01 T01291021  RH  035%=      5-min Rain = 0
KST2 121925Z 01004KT 12/M02 A3035 RMK A01 T01241023  RH  036%=      5-min Rain = 0
KST2 121926Z 34003KT 12/M02 A3034 RMK A01 T01221021  RH  037%=      5-min Rain = 0
KST2 121927Z 04004KT 12/M02 A3034 RMK A01 T01221020  RH  037%=      5-min Rain = 0
KST2 121928Z 05004KT 12/M02 A3034 RMK A01 T01231020  RH  037%=      5-min Rain = 0
KST2 121929Z 03009KT 12/M02 A3035 RMK A01 T01231023  RH  036%=      5-min Rain = 0
KST2 121930Z 04008KT 13/M02 A3034 RMK A01 T01261021  RH  036%=      5-min Rain = 0
KST2 121931Z 05009KT 13/M02 A3034 RMK A01 T01291021  RH  035%=      5-min Rain = 0
KST2 121932Z 05009KT 13/M02 A3034 RMK A01 T01301023  RH  035%=      5-min Rain = 0
KST2 121933Z 04007KT 13/M03 A3034 RMK A01 T01301026  RH  034%=      5-min Rain = 0
KST2 121934Z 03005KT 13/M03 A3034 RMK A01 T01271026  RH  034%=      5-min Rain = 0
KST2 121935Z 04007KT 13/M02 A3034 RMK A01 T01271022  RH  035%=      5-min Rain = 0
KST2 121936Z 04009KT 13/M02 A3034 RMK A01 T01331016  RH  035%=      5-min Rain = 0
KST2 121937Z 05006KT 14/M02 A3034 RMK A01 T01351022  RH  034%=      5-min Rain = 0
KST2 121938Z 04009KT 13/M02 A3034 RMK A01 T01321023  RH  034%=      5-min Rain = 0
KST2 121939Z 04007KT 13/M02 A3034 RMK A01 T01311023  RH  034%=      5-min Rain = 0
KST2 121940Z 03005KT 13/M02 A3034 RMK A01 T01281024  RH  035%=      5-min Rain = 0
KST2 121941Z 34002KT 13/M03 A3034 RMK A01 T01271025  RH  035%=      5-min Rain = 0
KST2 121942Z 03001KT 13/M02 A3034 RMK A01 T01251023  RH  036%=      5-min Rain = 0
KST2 121943Z 03007KT 13/M02 A3034 RMK A01 T01271020  RH  036%=      5-min Rain = 0
KST2 121944Z 04008KT 13/M02 A3034 RMK A01 T01301021  RH  035%=      5-min Rain = 0
KST2 121945Z 04007KT 13/M02 A3034 RMK A01 T01321018  RH  035%=      5-min Rain = 0
KST2 121946Z 05008KT 14/M02 A3034 RMK A01 T01351020  RH  034%=      5-min Rain = 0
KST2 121947Z 05005KT 13/M02 A3034 RMK A01 T01341022  RH  034%=      5-min Rain = 0
KST2 121948Z 05004KT 13/M02 A3034 RMK A01 T01311023  RH  034%=      5-min Rain = 0
KST2 121949Z 07004KT 13/M02 A3034 RMK A01 T01301022  RH  035%=      5-min Rain = 0
KST2 121950Z 09002KT 13/M02 A3034 RMK A01 T01291024  RH  034%=      5-min Rain = 0
KST2 121951Z 14001KT 13/M02 A3034 RMK A01 T01271024  RH  035%=      5-min Rain = 0
KST2 121952Z 11002KT 13/M02 A3033 RMK A01 T01291021  RH  035%=      5-min Rain = 0
KST2 121953Z 12003KT 13/M02 A3033 RMK A01 T01321020  RH  035%=      5-min Rain = 0
KST2 121954Z 13002KT 13/M02 A3033 RMK A01 T01321021  RH  034%=      5-min Rain = 0
KST2 121955Z 07004KT 13/M02 A3033 RMK A01 T01341019  RH  035%=      5-min Rain = 0
KST2 121956Z 02009KT 14/M02 A3033 RMK A01 T01361020  RH  034%=      5-min Rain = 0
KST2 121957Z 02010KT 14/M02 A3033 RMK A01 T01371022  RH  033%=      5-min Rain = 0
KST2 121958Z 02006KT 14/M03 A3033 RMK A01 T01351025  RH  033%=      5-min Rain = 0
KST2 121959Z 06005KT 13/M03 A3033 RMK A01 T01311026  RH  033%=      5-min Rain = 0
KST2 122000Z 07009KT 13/M03 A3033 RMK A01 T01311025  RH  034%=      5-min Rain = 0
KST2 122001Z 09008KT 13/M03 A3033 RMK A01 T01321025  RH  034%=      5-min Rain = 0
KST2 122002Z 07008KT 13/M03 A3033 RMK A01 T01331025  RH  033%=      5-min Rain = 0
KST2 122003Z 07007KT 13/M03 A3033 RMK A01 T01341026  RH  033%=      5-min Rain = 0
KST2 122004Z 04009KT 13/M03 A3033 RMK A01 T01341027  RH  033%=      5-min Rain = 0
KST2 122005Z 05006KT 13/M03 A3033 RMK A01 T01321027  RH  033%=      5-min Rain = 0
KST2 122006Z 04006KT 13/M03 A3033 RMK A01 T01301027  RH  033%=      5-min Rain = 0
KST2 122007Z 04003KT 13/M03 A3033 RMK A01 T01311026  RH  034%=      5-min Rain = 0
KST2 122008Z 09004KT 13/M03 A3033 RMK A01 T01311027  RH  033%=      5-min Rain = 0
KST2 122009Z 09004KT 13/M03 A3033 RMK A01 T01301027  RH  034%=      5-min Rain = 0
KST2 122010Z 09003KT 13/M03 A3033 RMK A01 T01311026  RH  034%=      5-min Rain = 0
KST2 122011Z 07005KT 13/M03 A3033 RMK A01 T01311026  RH  034%=      5-min Rain = 0
KST2 122012Z 06007KT 13/M03 A3033 RMK A01 T01321026  RH  033%=      5-min Rain = 0
KST2 122013Z 06006KT 13/M03 A3033 RMK A01 T01331026  RH  033%=      5-min Rain = 0
KST2 122014Z 06006KT 14/M02 A3033 RMK A01 T01361023  RH  033%=      5-min Rain = 0
KST2 122015Z 04006KT 14/M03 A3033 RMK A01 T01381025  RH  032%=      5-min Rain = 0
KST2 122016Z 02005KT 14/M02 A3033 RMK A01 T01361024  RH  033%=      5-min Rain = 0
KST2 122017Z 02006KT 14/M02 A3032 RMK A01 T01351023  RH  033%=      5-min Rain = 0
KST2 122018Z 03005KT 14/M02 A3032 RMK A01 T01361024  RH  033%=      5-min Rain = 0
KST2 122019Z 03004KT 14/M03 A3032 RMK A01 T01351025  RH  033%=      5-min Rain = 0
KST2 122020Z 08001KT 13/M02 A3032 RMK A01 T01341024  RH  033%=      5-min Rain = 0
KST2 122021Z 06004KT 14/M02 A3032 RMK A01 T01351024  RH  033%=      5-min Rain = 0
KST2 122022Z 06004KT 14/M02 A3032 RMK A01 T01361024  RH  033%=      5-min Rain = 0
KST2 122023Z 03004KT 14/M02 A3032 RMK A01 T01361023  RH  033%=      5-min Rain = 0
KST2 122024Z 04006KT 14/M02 A3032 RMK A01 T01361023  RH  033%=      5-min Rain = 0
KST2 122025Z 05005KT 13/M03 A3032 RMK A01 T01341026  RH  033%=      5-min Rain = 0
KST2 122026Z 02007KT 14/M02 A3032 RMK A01 T01351022  RH  034%=      5-min Rain = 0
KST2 122027Z 04006KT 14/M02 A3032 RMK A01 T01391022  RH  033%=      5-min Rain = 0
KST2 122028Z 05007KT 14/M02 A3032 RMK A01 T01421023  RH  032%=      5-min Rain = 0
KST2 122029Z 05011KT 14/M03 A3032 RMK A01 T01421026  RH  031%=      5-min Rain = 0
KST2 122030Z 05009KT 14/M03 A3032 RMK A01 T01421026  RH  031%=      5-min Rain = 0
KST2 122031Z 03009KT 14/M03 A3032 RMK A01 T01401026  RH  032%=      5-min Rain = 0
KST2 122032Z 05006KT 14/M03 A3031 RMK A01 T01371027  RH  032%=      5-min Rain = 0
KST2 122033Z 03007KT 14/M03 A3031 RMK A01 T01361027  RH  032%=      5-min Rain = 0
KST2 122034Z 02007KT 14/M03 A3031 RMK A01 T01381025  RH  032%=      5-min Rain = 0
KST2 122035Z 02005KT 14/M03 A3031 RMK A01 T01371030  RH  031%=      5-min Rain = 0
KST2 122036Z 35006KT 14/M03 A3031 RMK A01 T01351029  RH  032%=      5-min Rain = 0
KST2 122037Z 34006KT 13/M03 A3031 RMK A01 T01341028  RH  032%=      5-min Rain = 0
KST2 122038Z 32004KT 14/M03 A3031 RMK A01 T01351026  RH  033%=      5-min Rain = 0
KST2 122039Z 04002KT 14/M02 A3031 RMK A01 T01381022  RH  033%=      5-min Rain = 0
KST2 122040Z 09004KT 14/M03 A3031 RMK A01 T01401025  RH  032%=      5-min Rain = 0
KST2 122041Z 07006KT 14/M03 A3031 RMK A01 T01411025  RH  032%=      5-min Rain = 0
KST2 122042Z 06005KT 14/M03 A3031 RMK A01 T01401026  RH  032%=      5-min Rain = 0
KST2 122043Z 08003KT 14/M03 A3031 RMK A01 T01381028  RH  032%=      5-min Rain = 0
KST2 122044Z 09002KT 14/M03 A3031 RMK A01 T01361028  RH  032%=      5-min Rain = 0
KST2 122045Z 09005KT 14/M03 A3031 RMK A01 T01371026  RH  032%=      5-min Rain = 0
KST2 122046Z 07005KT 14/M03 A3031 RMK A01 T01381026  RH  032%=      5-min Rain = 0
KST2 122047Z 08003KT 14/M03 A3031 RMK A01 T01381027  RH  032%=      5-min Rain = 0
KST2 122048Z 03006KT 14/M02 A3031 RMK A01 T01391024  RH  032%=      5-min Rain = 0
KST2 122049Z 33005KT 14/M02 A303 RMK A01 T01411024  RH  032%=      5-min Rain = 0
KST2 122050Z 02007KT 14/M03 A3031 RMK A01 T01411025  RH  032%=      5-min Rain = 0
KST2 122051Z 06009KT 15/M03 A3031 RMK A01 T01451025  RH  031%=      5-min Rain = 0
KST2 122052Z 06011KT 15/M03 A3031 RMK A01 T01481030  RH  029%=      5-min Rain = 0
KST2 122053Z 05012KT 15/M03 A3031 RMK A01 T01471030  RH  029%=      5-min Rain = 0
KST2 122054Z 05009KT 14/M03 A3031 RMK A01 T01441030  RH  030%=      5-min Rain = 0
KST2 122055Z 04006KT 14/M03 A3031 RMK A01 T01421032  RH  030%=      5-min Rain = 0
KST2 122056Z 05005KT 14/M03 A3031 RMK A01 T01401031  RH  030%=      5-min Rain = 0
KST2 122057Z 07008KT 14/M03 A3031 RMK A01 T01421029  RH  030%=      5-min Rain = 0
KST2 122058Z 07006KT 14/M03 A3031 RMK A01 T01431029  RH  030%=      5-min Rain = 0
KST2 122059Z 04002KT 14/M03 A303 RMK A01 T01401032  RH  030%=      5-min Rain = 0
KST2 122100Z 08001KT 14/M03 A303 RMK A01 T01401029  RH  031%=      5-min Rain = 0
KST2 122101Z 07005KT 14/M03 A303 RMK A01 T01421026  RH  031%=      5-min Rain = 0
KST2 122102Z 06004KT 15/M03 A303 RMK A01 T01451028  RH  030%=      5-min Rain = 0
KST2 122103Z 10003KT 14/M03 A303 RMK A01 T01431029  RH  030%=      5-min Rain = 0
KST2 122104Z 06006KT 14/M03 A303 RMK A01 T01431029  RH  030%=      5-min Rain = 0
KST2 122105Z 05008KT 15/M03 A303 RMK A01 T01471026  RH  030%=      5-min Rain = 0
KST2 122106Z 06009KT 15/M03 A303 RMK A01 T01501029  RH  029%=      5-min Rain = 0
KST2 122107Z 05010KT 15/M03 A303 RMK A01 T01481032  RH  029%=      5-min Rain = 0
KST2 122108Z 04009KT 15/M03 A303 RMK A01 T01451032  RH  029%=      5-min Rain = 0
KST2 122109Z 03005KT 14/M04 A303 RMK A01 T01441035  RH  029%=      5-min Rain = 0
KST2 122110Z 02004KT 14/M03 A303 RMK A01 T01421033  RH  030%=      5-min Rain = 0
KST2 122111Z 07005KT 14/M03 A303 RMK A01 T01441032  RH  029%=      5-min Rain = 0
KST2 122112Z 05003KT 14/M03 A303 RMK A01 T01441033  RH  029%=      5-min Rain = 0
KST2 122113Z 02005KT 14/M03 A303 RMK A01 T01441032  RH  030%=      5-min Rain = 0
KST2 122114Z 06007KT 15/M03 A303 RMK A01 T01451029  RH  030%=      5-min Rain = 0
KST2 122115Z 05006KT 15/M03 A303 RMK A01 T01451031  RH  029%=      5-min Rain = 0
KST2 122116Z 05003KT 14/M03 A303 RMK A01 T01431031  RH  030%=      5-min Rain = 0
KST2 122117Z 06003KT 14/M03 A303 RMK A01 T01421030  RH  030%=      5-min Rain = 0
KST2 122118Z 04003KT 14/M03 A303 RMK A01 T01431028  RH  031%=      5-min Rain = 0
KST2 122119Z 05005KT 15/M02 A303 RMK A01 T01471024  RH  031%=      5-min Rain = 0
KST2 122120Z 06008KT 15/M03 A303 RMK A01 T01501027  RH  029%=      5-min Rain = 0
KST2 122121Z 06008KT 15/M03 A303 RMK A01 T01521029  RH  029%=      5-min Rain = 0
KST2 122122Z 08006KT 15/M03 A303 RMK A01 T01521032  RH  028%=      5-min Rain = 0
KST2 122123Z 07004KT 15/M04 A3029 RMK A01 T01471035  RH  028%=      5-min Rain = 0
KST2 122124Z 05008KT 15/M03 A3029 RMK A01 T01451034  RH  029%=      5-min Rain = 0
KST2 122125Z 06007KT 15/M03 A3029 RMK A01 T01461034  RH  029%=      5-min Rain = 0
KST2 122126Z 05006KT 15/M03 A3029 RMK A01 T01471034  RH  029%=      5-min Rain = 0
KST2 122127Z 05011KT 15/M04 A3029 RMK A01 T01481043  RH  027%=      5-min Rain = 0
KST2 122128Z 05010KT 15/M04 A3029 RMK A01 T01471038  RH  028%=      5-min Rain = 0
KST2 122129Z 05010KT 15/M03 A3029 RMK A01 T01501032  RH  028%=      5-min Rain = 0
KST2 122130Z 04009KT 15/M03 A3029 RMK A01 T01491032  RH  029%=      5-min Rain = 0
KST2 122131Z 02008KT 15/M03 A3029 RMK A01 T01471032  RH  029%=      5-min Rain = 0
KST2 122132Z 05008KT 15/M03 A3029 RMK A01 T01451033  RH  029%=      5-min Rain = 0
KST2 122133Z 06007KT 14/M04 A3029 RMK A01 T01441036  RH  029%=      5-min Rain = 0
KST2 122134Z 05005KT 14/M04 A3029 RMK A01 T01421039  RH  028%=      5-min Rain = 0
KST2 122135Z 05006KT 14/M04 A3029 RMK A01 T01421036  RH  029%=      5-min Rain = 0
KST2 122136Z 03007KT 14/M04 A3029 RMK A01 T01441036  RH  029%=      5-min Rain = 0
KST2 122137Z 03006KT 15/M04 A3028 RMK A01 T01451037  RH  028%=      5-min Rain = 0
KST2 122138Z 02005KT 15/M04 A3028 RMK A01 T01451038  RH  028%=      5-min Rain = 0
KST2 122139Z 05009KT 15/M04 A3028 RMK A01 T01451036  RH  028%=      5-min Rain = 0
KST2 122140Z 05009KT 15/M04 A3028 RMK A01 T01491035  RH  028%=      5-min Rain = 0
KST2 122141Z 05006KT 15/M04 A3028 RMK A01 T01491040  RH  027%=      5-min Rain = 0
KST2 122142Z 04005KT 15/M04 A3028 RMK A01 T01491039  RH  027%=      5-min Rain = 0
KST2 122143Z 06006KT 15/M03 A3028 RMK A01 T01501034  RH  028%=      5-min Rain = 0
KST2 122144Z 06007KT 15/M04 A3028 RMK A01 T01501038  RH  027%=      5-min Rain = 0
KST2 122145Z 06008KT 15/M04 A3028 RMK A01 T01481040  RH  027%=      5-min Rain = 0
KST2 122146Z 06008KT 15/M04 A3028 RMK A01 T01471041  RH  027%=      5-min Rain = 0
KST2 122147Z 03007KT 15/M04 A3028 RMK A01 T01471038  RH  028%=      5-min Rain = 0
KST2 122148Z 06004KT 15/M04 A3028 RMK A01 T01461039  RH  028%=      5-min Rain = 0
KST2 122149Z 09005KT 14/M04 A3028 RMK A01 T01441040  RH  028%=      5-min Rain = 0
KST2 122150Z 06004KT 14/M04 A3028 RMK A01 T01431041  RH  028%=      5-min Rain = 0
KST2 122151Z 03006KT 14/M04 A3028 RMK A01 T01431040  RH  028%=      5-min Rain = 0
KST2 122152Z 07007KT 15/M04 A3028 RMK A01 T01461042  RH  027%=      5-min Rain = 0
KST2 122153Z 07007KT 15/M04 A3028 RMK A01 T01471044  RH  026%=      5-min Rain = 0
KST2 122154Z 06007KT 15/M04 A3028 RMK A01 T01471044  RH  027%=      5-min Rain = 0
KST2 122155Z 06008KT 15/M05 A3028 RMK A01 T01471045  RH  026%=      5-min Rain = 0
KST2 122156Z 05007KT 15/M05 A3028 RMK A01 T01451048  RH  026%=      5-min Rain = 0
KST2 122157Z 04007KT 15/M04 A3028 RMK A01 T01481043  RH  026%=      5-min Rain = 0
KST2 122158Z 04007KT 15/M05 A3028 RMK A01 T01491046  RH  026%=      5-min Rain = 0
KST2 122159Z 06006KT 15/M05 A3028 RMK A01 T01461047  RH  026%=      5-min Rain = 0
KST2 122200Z 05006KT 15/M05 A3028 RMK A01 T01461046  RH  026%=      5-min Rain = 0
KST2 122201Z 03004KT 15/M04 A3028 RMK A01 T01461043  RH  027%=      5-min Rain = 0
KST2 122202Z 03005KT 15/M04 A3028 RMK A01 T01461041  RH  027%=      5-min Rain = 0
KST2 122203Z 06004KT 15/M04 A3027 RMK A01 T01451041  RH  027%=      5-min Rain = 0
KST2 122204Z 07003KT 15/M04 A3027 RMK A01 T01451042  RH  027%=      5-min Rain = 0
KST2 122205Z 13002KT 14/M04 A3027 RMK A01 T01441042  RH  027%=      5-min Rain = 0
KST2 122206Z 18001KT 15/M04 A3027 RMK A01 T01451042  RH  027%=      5-min Rain = 0
KST2 122207Z 35001KT 15/M04 A3027 RMK A01 T01451041  RH  027%=      5-min Rain = 0
KST2 122208Z 03006KT 15/M04 A3027 RMK A01 T01471039  RH  027%=      5-min Rain = 0
KST2 122209Z 05008KT 15/M04 A3027 RMK A01 T01481042  RH  027%=      5-min Rain = 0
KST2 122210Z 06006KT 15/M04 A3027 RMK A01 T01491042  RH  027%=      5-min Rain = 0
KST2 122211Z 06006KT 15/M05 A3027 RMK A01 T01491045  RH  026%=      5-min Rain = 0
KST2 122212Z 07004KT 15/M05 A3027 RMK A01 T01461047  RH  026%=      5-min Rain = 0
KST2 122213Z 06005KT 15/M04 A3027 RMK A01 T01471043  RH  027%=      5-min Rain = 0
KST2 122214Z 07008KT 15/M04 A3027 RMK A01 T01491043  RH  026%=      5-min Rain = 0
KST2 122215Z 05008KT 15/M04 A3027 RMK A01 T01511043  RH  026%=      5-min Rain = 0
KST2 122216Z 04007KT 15/M04 A3027 RMK A01 T01491044  RH  026%=      5-min Rain = 0
KST2 122217Z 04007KT 15/M04 A3027 RMK A01 T01481043  RH  026%=      5-min Rain = 0
KST2 122218Z 04006KT 15/M05 A3027 RMK A01 T01481045  RH  026%=      5-min Rain = 0
KST2 122219Z 03006KT 15/M05 A3027 RMK A01 T01501046  RH  026%=      5-min Rain = 0
KST2 122220Z 03005KT 15/M05 A3027 RMK A01 T01501045  RH  026%=      5-min Rain = 0
KST2 122221Z 02005KT 15/M05 A3027 RMK A01 T01501045  RH  026%=      5-min Rain = 0
KST2 122222Z 02005KT 15/M05 A3027 RMK A01 T01491047  RH  026%=      5-min Rain = 0
KST2 122223Z 01003KT 15/M05 A3027 RMK A01 T01481046  RH  026%=      5-min Rain = 0
KST2 122224Z 35002KT 15/M05 A3027 RMK A01 T01471047  RH  026%=      5-min Rain = 0
KST2 122225Z 06002KT 15/M04 A3026 RMK A01 T01481041  RH  027%=      5-min Rain = 0
KST2 122226Z 01004KT 15/M04 A3026 RMK A01 T01481040  RH  027%=      5-min Rain = 0
KST2 122227Z 02004KT 15/M04 A3026 RMK A01 T01481040  RH  027%=      5-min Rain = 0
KST2 122228Z 33004KT 15/M04 A3026 RMK A01 T01471040  RH  027%=      5-min Rain = 0
KST2 122229Z 32004KT 15/M04 A3026 RMK A01 T01471039  RH  028%=      5-min Rain = 0
KST2 122230Z 32004KT 15/M04 A3026 RMK A01 T01471040  RH  027%=      5-min Rain = 0
KST2 122231Z 00007KT 15/M04 A3026 RMK A01 T01481038  RH  027%=      5-min Rain = 0
KST2 122232Z 01005KT 15/M04 A3026 RMK A01 T01491039  RH  027%=      5-min Rain = 0
KST2 122233Z 34003KT 15/M04 A3026 RMK A01 T01471041  RH  027%=      5-min Rain = 0
KST2 122234Z 03003KT 15/M04 A3026 RMK A01 T01461040  RH  027%=      5-min Rain = 0
KST2 122235Z 01005KT 15/M04 A3026 RMK A01 T01461039  RH  028%=      5-min Rain = 0
KST2 122236Z 35008KT 15/M04 A3026 RMK A01 T01471041  RH  027%=      5-min Rain = 0
KST2 122237Z 01006KT 15/M04 A3026 RMK A01 T01471043  RH  027%=      5-min Rain = 0
KST2 122238Z 01006KT 15/M04 A3026 RMK A01 T01461044  RH  027%=      5-min Rain = 0
KST2 122239Z 36005KT 15/M05 A3026 RMK A01 T01471047  RH  026%=      5-min Rain = 0
KST2 122240Z 01004KT 15/M05 A3026 RMK A01 T01471050  RH  025%=      5-min Rain = 0
KST2 122241Z 06005KT 15/M05 A3026 RMK A01 T01481048  RH  026%=      5-min Rain = 0
KST2 122242Z 05006KT 15/M05 A3026 RMK A01 T01491051  RH  025%=      5-min Rain = 0
KST2 122243Z 07005KT 15/M05 A3026 RMK A01 T01491053  RH  024%=      5-min Rain = 0
KST2 122244Z 06007KT 15/M05 A3026 RMK A01 T01491050  RH  025%=      5-min Rain = 0
KST2 122245Z 06008KT 15/M05 A3026 RMK A01 T01501048  RH  025%=      5-min Rain = 0
KST2 122246Z 06005KT 15/M05 A3026 RMK A01 T01471047  RH  026%=      5-min Rain = 0
KST2 122247Z 04003KT 15/M05 A3025 RMK A01 T01451048  RH  026%=      5-min Rain = 0
KST2 122248Z 04005KT 15/M05 A3025 RMK A01 T01451046  RH  026%=      5-min Rain = 0
KST2 122249Z 04006KT 15/M04 A3025 RMK A01 T01471043  RH  027%=      5-min Rain = 0
KST2 122250Z 03005KT 15/M04 A3025 RMK A01 T01471044  RH  026%=      5-min Rain = 0
KST2 122251Z 07006KT 15/M04 A3025 RMK A01 T01471042  RH  027%=      5-min Rain = 0
KST2 122252Z 05009KT 15/M04 A3025 RMK A01 T01501041  RH  027%=      5-min Rain = 0
KST2 122253Z 05007KT 15/M04 A3025 RMK A01 T01491044  RH  026%=      5-min Rain = 0
KST2 122254Z 06005KT 15/M04 A3025 RMK A01 T01471044  RH  026%=      5-min Rain = 0
KST2 122255Z 06004KT 15/M04 A3025 RMK A01 T01461043  RH  027%=      5-min Rain = 0
KST2 122256Z 06007KT 15/M04 A3025 RMK A01 T01461043  RH  027%=      5-min Rain = 0
KST2 122257Z 06007KT 15/M04 A3025 RMK A01 T01491041  RH  027%=      5-min Rain = 0
KST2 122258Z 06005KT 15/M04 A3025 RMK A01 T01501043  RH  026%=      5-min Rain = 0
KST2 122259Z 07006KT 15/M04 A3025 RMK A01 T01481043  RH  026%=      5-min Rain = 0
KST2 122300Z 06005KT 15/M04 A3025 RMK A01 T01471040  RH  027%=      5-min Rain = 0
KST2 122301Z 06007KT 15/M04 A3025 RMK A01 T01471040  RH  027%=      5-min Rain = 0
KST2 122302Z 06005KT 15/M04 A3025 RMK A01 T01461040  RH  027%=      5-min Rain = 0
KST2 122303Z 04004KT 15/M04 A3025 RMK A01 T01451040  RH  028%=      5-min Rain = 0
KST2 122304Z 05004KT 15/M04 A3025 RMK A01 T01451040  RH  028%=      5-min Rain = 0
KST2 122305Z 05005KT 15/M04 A3025 RMK A01 T01451041  RH  027%=      5-min Rain = 0
KST2 122306Z 05007KT 15/M04 A3025 RMK A01 T01461040  RH  027%=      5-min Rain = 0
KST2 122307Z 03004KT 15/M04 A3025 RMK A01 T01471040  RH  027%=      5-min Rain = 0
KST2 122308Z 05002KT 15/M04 A3025 RMK A01 T01461040  RH  027%=      5-min Rain = 0
KST2 122309Z 03003KT 15/M04 A3025 RMK A01 T01461040  RH  028%=      5-min Rain = 0
KST2 122310Z 36003KT 15/M04 A3025 RMK A01 T01471040  RH  027%=      5-min Rain = 0
KST2 122311Z 01007KT 15/M04 A3025 RMK A01 T01471038  RH  028%=      5-min Rain = 0
KST2 122312Z 03005KT 15/M04 A3025 RMK A01 T01471039  RH  027%=      5-min Rain = 0
KST2 122313Z 04002KT 15/M04 A3025 RMK A01 T01461040  RH  027%=      5-min Rain = 0
KST2 122314Z 35003KT 15/M04 A3025 RMK A01 T01461039  RH  028%=      5-min Rain = 0
KST2 122315Z 00005KT 15/M04 A3025 RMK A01 T01471038  RH  028%=      5-min Rain = 0
KST2 122316Z 03009G15KT 15/M04 A3025 RMK A01 T01481037  RH  028%=      5-min Rain = 0
KST2 122317Z 04008KT 15/M04 A3025 RMK A01 T01501037  RH  027%=      5-min Rain = 0
KST2 122318Z 06008KT 15/M04 A3025 RMK A01 T01511038  RH  027%=      5-min Rain = 0
KST2 122319Z 06009KT 15/M04 A3025 RMK A01 T01501037  RH  027%=      5-min Rain = 0
KST2 122320Z 05007KT 15/M04 A3025 RMK A01 T01501038  RH  027%=      5-min Rain = 0
KST2 122321Z 04006KT 15/M04 A3025 RMK A01 T01491038  RH  027%=      5-min Rain = 0
KST2 122322Z 05004KT 15/M04 A3025 RMK A01 T01491039  RH  027%=      5-min Rain = 0
KST2 122323Z 03005KT 15/M04 A3025 RMK A01 T01471040  RH  027%=      5-min Rain = 0
KST2 122324Z 01004KT 15/M04 A3025 RMK A01 T01471040  RH  027%=      5-min Rain = 0
KST2 122325Z 03004KT 15/M04 A3025 RMK A01 T01461041  RH  027%=      5-min Rain = 0
KST2 122326Z 03004KT 15/M04 A3025 RMK A01 T01471038  RH  028%=      5-min Rain = 0
KST2 122327Z 05005KT 15/M04 A3025 RMK A01 T01491038  RH  027%=      5-min Rain = 0
KST2 122328Z 07003KT 15/M04 A3025 RMK A01 T01481041  RH  027%=      5-min Rain = 0
KST2 122329Z 07002KT 15/M04 A3025 RMK A01 T01471040  RH  027%=      5-min Rain = 0
KST2 122330Z 06002KT 15/M04 A3025 RMK A01 T01471039  RH  027%=      5-min Rain = 0
KST2 122331Z 03003KT 15/M04 A3024 RMK A01 T01471039  RH  027%=      5-min Rain = 0
KST2 122332Z 04003KT 15/M04 A3024 RMK A01 T01471040  RH  027%=      5-min Rain = 0
KST2 122333Z 06004KT 15/M04 A3024 RMK A01 T01471039  RH  027%=      5-min Rain = 0
KST2 122334Z 08005KT 15/M04 A3024 RMK A01 T01471038  RH  028%=      5-min Rain = 0
KST2 122335Z 06005KT 15/M04 A3024 RMK A01 T01471038  RH  028%=      5-min Rain = 0
KST2 122336Z 07004KT 15/M04 A3024 RMK A01 T01471038  RH  028%=      5-min Rain = 0
KST2 122337Z 09003KT 15/M04 A3024 RMK A01 T01471039  RH  027%=      5-min Rain = 0
KST2 122338Z 08003KT 15/M04 A3024 RMK A01 T01461039  RH  027%=      5-min Rain = 0
KST2 122339Z 05002KT 15/M04 A3024 RMK A01 T01461039  RH  028%=      5-min Rain = 0
KST2 122340Z 03003KT 15/M04 A3024 RMK A01 T01471036  RH  028%=      5-min Rain = 0
KST2 122341Z 02002KT 15/M04 A3024 RMK A01 T01471037  RH  028%=      5-min Rain = 0
KST2 122342Z 02002KT 15/M04 A3024 RMK A01 T01471038  RH  028%=      5-min Rain = 0
KST2 122343Z 01003KT 15/M04 A3024 RMK A01 T01471037  RH  028%=      5-min Rain = 0
KST2 122344Z 34002KT 15/M04 A3024 RMK A01 T01461038  RH  028%=      5-min Rain = 0
KST2 122345Z 32002KT 15/M04 A3024 RMK A01 T01461037  RH  028%=      5-min Rain = 0
KST2 122346Z 32003KT 15/M04 A3024 RMK A01 T01471037  RH  028%=      5-min Rain = 0
KST2 122347Z 00005KT 15/M04 A3024 RMK A01 T01481036  RH  028%=      5-min Rain = 0
KST2 122348Z 01006KT 15/M04 A3024 RMK A01 T01481036  RH  028%=      5-min Rain = 0
KST2 122349Z 02006KT 15/M04 A3024 RMK A01 T01481036  RH  028%=      5-min Rain = 0
KST2 122350Z 03003KT 15/M04 A3024 RMK A01 T01471037  RH  028%=      5-min Rain = 0
KST2 122351Z 04004KT 15/M04 A3024 RMK A01 T01461038  RH  028%=      5-min Rain = 0
KST2 122352Z 02005KT 15/M04 A3024 RMK A01 T01461037  RH  028%=      5-min Rain = 0
KST2 122353Z 03004KT 15/M04 A3024 RMK A01 T01451037  RH  028%=      5-min Rain = 0
KST2 122354Z 03004KT 15/M04 A3024 RMK A01 T01461037  RH  028%=      5-min Rain = 0
KST2 122355Z 03006KT 15/M04 A3024 RMK A01 T01451037  RH  028%=      5-min Rain = 0
KST2 122356Z 04007KT 15/M04 A3024 RMK A01 T01461037  RH  028%=      5-min Rain = 0
KST2 122357Z 03006KT 15/M04 A3024 RMK A01 T01461037  RH  028%=      5-min Rain = 0
KST2 122358Z 01005KT 15/M04 A3024 RMK A01 T01461039  RH  028%=      5-min Rain = 0
KST2 122359Z 02004KT 15/M04 A3024 RMK A01 T01451038  RH  028%=      5-min Rain = 0
KST2 130000Z 03005KT 15/M04 A3024 RMK A01 T01451037  RH  028%=      5-min Rain = 0
KST2 130001Z 04005KT 15/M04 A3024 RMK A01 T01461038  RH  028%=      5-min Rain = 0
KST2 130002Z 03005KT 15/M04 A3024 RMK A01 T01461037  RH  028%=      5-min Rain = 0
KST2 130003Z 04005KT 15/M04 A3024 RMK A01 T01461036  RH  028%=      5-min Rain = 0
KST2 130004Z 03007KT 15/M04 A3024 RMK A01 T01471035  RH  028%=      5-min Rain = 0
KST2 130005Z 02006KT 15/M04 A3024 RMK A01 T01471035  RH  028%=      5-min Rain = 0
KST2 130006Z 03005KT 15/M04 A3024 RMK A01 T01461035  RH  028%=      5-min Rain = 0
KST2 130007Z 01005KT 15/M04 A3024 RMK A01 T01451035  RH  028%=      5-min Rain = 0
KST2 130008Z 03004KT 15/M04 A3024 RMK A01 T01461036  RH  028%=      5-min Rain = 0
KST2 130009Z 02005KT 15/M04 A3024 RMK A01 T01451036  RH  028%=      5-min Rain = 0
KST2 130010Z 01007KT 14/M04 A3024 RMK A01 T01441037  RH  028%=      5-min Rain = 0
KST2 130011Z 01006KT 14/M04 A3024 RMK A01 T01441036  RH  029%=      5-min Rain = 0
KST2 130012Z 02006KT 14/M04 A3024 RMK A01 T01441036  RH  029%=      5-min Rain = 0
KST2 130013Z 01006KT 14/M04 A3024 RMK A01 T01431037  RH  029%=      5-min Rain = 0
KST2 130014Z 02006KT 14/M04 A3024 RMK A01 T01431037  RH  029%=      5-min Rain = 0
KST2 130015Z 02005KT 14/M04 A3024 RMK A01 T01421037  RH  029%=      5-min Rain = 0
KST2 130016Z 02005KT 14/M04 A3024 RMK A01 T01421037  RH  029%=      5-min Rain = 0
KST2 130017Z 02005KT 14/M04 A3024 RMK A01 T01421036  RH  029%=      5-min Rain = 0
KST2 130018Z 02004KT 14/M04 A3024 RMK A01 T01421037  RH  029%=      5-min Rain = 0
KST2 130019Z 02004KT 14/M04 A3024 RMK A01 T01421037  RH  029%=      5-min Rain = 0
KST2 130020Z 03005KT 14/M04 A3024 RMK A01 T01421037  RH  029%=      5-min Rain = 0
KST2 130021Z 03005KT 14/M04 A3024 RMK A01 T01421037  RH  029%=      5-min Rain = 0
KST2 130022Z 03004KT 14/M04 A3024 RMK A01 T01411038  RH  029%=      5-min Rain = 0
KST2 130023Z 03004KT 14/M04 A3024 RMK A01 T01411038  RH  029%=      5-min Rain = 0
KST2 130024Z 03004KT 14/M04 A3024 RMK A01 T01411038  RH  029%=      5-min Rain = 0
KST2 130025Z 03004KT 14/M04 A3024 RMK A01 T01401038  RH  029%=      5-min Rain = 0
KST2 130026Z 03004KT 14/M04 A3024 RMK A01 T01401037  RH  029%=      5-min Rain = 0
KST2 130027Z 03004KT 14/M04 A3024 RMK A01 T01391036  RH  030%=      5-min Rain = 0
KST2 130028Z 02005KT 14/M04 A3024 RMK A01 T01381037  RH  030%=      5-min Rain = 0
KST2 130029Z 02005KT 14/M04 A3024 RMK A01 T01371036  RH  030%=      5-min Rain = 0
KST2 130030Z 02005KT 14/M04 A3024 RMK A01 T01371036  RH  030%=      5-min Rain = 0
KST2 130031Z 02005KT 14/M04 A3024 RMK A01 T01361035  RH  030%=      5-min Rain = 0
KST2 130032Z 02006KT 14/M04 A3024 RMK A01 T01351035  RH  031%=      5-min Rain = 0
KST2 130033Z 03006KT 13/M04 A3024 RMK A01 T01341036  RH  031%=      5-min Rain = 0
KST2 130034Z 02006KT 13/M04 A3024 RMK A01 T01331037  RH  031%=      5-min Rain = 0
KST2 130035Z 02006KT 13/M04 A3024 RMK A01 T01321038  RH  031%=      5-min Rain = 0
KST2 130036Z 02006KT 13/M04 A3024 RMK A01 T01311038  RH  031%=      5-min Rain = 0
KST2 130037Z 02006KT 13/M04 A3024 RMK A01 T01311037  RH  031%=      5-min Rain = 0
KST2 130038Z 02005KT 13/M04 A3024 RMK A01 T01301038  RH  031%=      5-min Rain = 0
KST2 130039Z 03006KT 13/M04 A3024 RMK A01 T01291038  RH  031%=      5-min Rain = 0
KST2 130040Z 02006KT 13/M04 A3024 RMK A01 T01281038  RH  031%=      5-min Rain = 0
KST2 130041Z 02005KT 13/M04 A3024 RMK A01 T01281038  RH  031%=      5-min Rain = 0
KST2 130042Z 02005KT 13/M04 A3024 RMK A01 T01271038  RH  031%=      5-min Rain = 0
KST2 130043Z 03005KT 13/M04 A3024 RMK A01 T01261038  RH  032%=      5-min Rain = 0
KST2 130044Z 02005KT 13/M04 A3024 RMK A01 T01251038  RH  032%=      5-min Rain = 0
KST2 130045Z 03005KT 13/M04 A3024 RMK A01 T01251038  RH  032%=      5-min Rain = 0
KST2 130046Z 03005KT 13/M04 A3024 RMK A01 T01251037  RH  032%=      5-min Rain = 0
KST2 130047Z 03005KT 12/M04 A3024 RMK A01 T01241038  RH  032%=      5-min Rain = 0
KST2 130048Z 03005KT 12/M04 A3024 RMK A01 T01231038  RH  032%=      5-min Rain = 0
KST2 130049Z 03005KT 12/M04 A3024 RMK A01 T01221038  RH  032%=      5-min Rain = 0
KST2 130050Z 03005KT 12/M04 A3024 RMK A01 T01221038  RH  033%=      5-min Rain = 0
KST2 130051Z 02005KT 12/M04 A3024 RMK A01 T01211038  RH  033%=      5-min Rain = 0
KST2 130052Z 02005KT 12/M04 A3024 RMK A01 T01201037  RH  033%=      5-min Rain = 0
KST2 130053Z 02005KT 12/M04 A3024 RMK A01 T01191037  RH  033%=      5-min Rain = 0
KST2 130054Z 02005KT 12/M04 A3024 RMK A01 T01191036  RH  034%=      5-min Rain = 0
KST2 130055Z 02005KT 12/M04 A3024 RMK A01 T01181037  RH  034%=      5-min Rain = 0
KST2 130056Z 02005KT 12/M04 A3024 RMK A01 T01171037  RH  034%=      5-min Rain = 0
KST2 130057Z 02005KT 12/M04 A3024 RMK A01 T01161037  RH  034%=      5-min Rain = 0
KST2 130058Z 02005KT 12/M04 A3024 RMK A01 T01151037  RH  034%=      5-min Rain = 0
KST2 130059Z 02005KT 11/M04 A3025 RMK A01 T01141039  RH  034%=      5-min Rain = 0
KST2 130100Z 02005KT 11/M04 A3025 RMK A01 T01141039  RH  034%=      5-min Rain = 0
KST2 130101Z 02005KT 11/M04 A3025 RMK A01 T01141039  RH  034%=      5-min Rain = 0
KST2 130102Z 02005KT 11/M04 A3025 RMK A01 T01141040  RH  034%=      5-min Rain = 0
KST2 130103Z 02005KT 11/M04 A3025 RMK A01 T01131040  RH  034%=      5-min Rain = 0
KST2 130104Z 02005KT 11/M04 A3025 RMK A01 T01131039  RH  034%=      5-min Rain = 0
KST2 130105Z 02005KT 11/M04 A3025 RMK A01 T01131038  RH  035%=      5-min Rain = 0
KST2 130106Z 02005KT 11/M04 A3025 RMK A01 T01131038  RH  035%=      5-min Rain = 0
KST2 130107Z 02005KT 11/M04 A3025 RMK A01 T01121039  RH  034%=      5-min Rain = 0
KST2 130108Z 02005KT 11/M04 A3025 RMK A01 T01121038  RH  035%=      5-min Rain = 0
KST2 130109Z 02005KT 11/M04 A3025 RMK A01 T01121038  RH  035%=      5-min Rain = 0
KST2 130110Z 02005KT 11/M04 A3025 RMK A01 T01111040  RH  035%=      5-min Rain = 0
KST2 130111Z 02005KT 11/M04 A3025 RMK A01 T01111040  RH  034%=      5-min Rain = 0
KST2 130112Z 03005KT 11/M04 A3025 RMK A01 T01111042  RH  034%=      5-min Rain = 0
KST2 130113Z 03005KT 11/M04 A3025 RMK A01 T01111043  RH  034%=      5-min Rain = 0
KST2 130114Z 02005KT 11/M04 A3025 RMK A01 T01111044  RH  034%=      5-min Rain = 0
KST2 130115Z 02005KT 11/M04 A3025 RMK A01 T01111044  RH  033%=      5-min Rain = 0
KST2 130116Z 02005KT 11/M05 A3025 RMK A01 T01111045  RH  033%=      5-min Rain = 0
KST2 130117Z 03005KT 11/M05 A3025 RMK A01 T01101046  RH  033%=      5-min Rain = 0
KST2 130118Z 03005KT 11/M04 A3025 RMK A01 T01101044  RH  034%=      5-min Rain = 0
KST2 130119Z 03005KT 11/M04 A3025 RMK A01 T01111043  RH  034%=      5-min Rain = 0
KST2 130120Z 02005KT 11/M04 A3025 RMK A01 T01121043  RH  033%=      5-min Rain = 0
KST2 130121Z 02005KT 11/M04 A3025 RMK A01 T01121043  RH  033%=      5-min Rain = 0
KST2 130122Z 02005KT 11/M04 A3025 RMK A01 T01121043  RH  033%=      5-min Rain = 0
KST2 130123Z 02005KT 11/M04 A3025 RMK A01 T01121043  RH  034%=      5-min Rain = 0
KST2 130124Z 03005KT 11/M04 A3025 RMK A01 T01111043  RH  034%=      5-min Rain = 0
KST2 130125Z 03005KT 11/M04 A3025 RMK A01 T01111044  RH  033%=      5-min Rain = 0
KST2 130126Z 03005KT 11/M05 A3025 RMK A01 T01101045  RH  033%=      5-min Rain = 0
KST2 130127Z 03005KT 11/M05 A3025 RMK A01 T01091045  RH  034%=      5-min Rain = 0
KST2 130128Z 03005KT 11/M05 A3025 RMK A01 T01071047  RH  034%=      5-min Rain = 0
KST2 130129Z 04006KT 11/M05 A3025 RMK A01 T01051047  RH  034%=      5-min Rain = 0
KST2 130130Z 04006KT 10/M05 A3025 RMK A01 T01041046  RH  034%=      5-min Rain = 0
KST2 130131Z 04006KT 11/M04 A3025 RMK A01 T01051044  RH  035%=      5-min Rain = 0
KST2 130132Z 04006KT 10/M04 A3025 RMK A01 T01041040  RH  036%=      5-min Rain = 0
KST2 130133Z 04006KT 10/M04 A3025 RMK A01 T01031041  RH  036%=      5-min Rain = 0
KST2 130134Z 04006KT 10/M04 A3025 RMK A01 T01011043  RH  036%=      5-min Rain = 0
KST2 130135Z 04007KT 10/M04 A3025 RMK A01 T01001044  RH  036%=      5-min Rain = 0
KST2 130136Z 04006KT 10/M05 A3025 RMK A01 T00981045  RH  036%=      5-min Rain = 0
KST2 130137Z 05006KT 10/M05 A3025 RMK A01 T00971046  RH  036%=      5-min Rain = 0
KST2 130138Z 08005KT 10/M05 A3025 RMK A01 T00961048  RH  036%=      5-min Rain = 0
KST2 130139Z 08005KT 09/M05 A3025 RMK A01 T00941048  RH  036%=      5-min Rain = 0
KST2 130140Z 08005KT 09/M05 A3025 RMK A01 T00931047  RH  037%=      5-min Rain = 0
KST2 130141Z 07005KT 09/M05 A3025 RMK A01 T00941048  RH  036%=      5-min Rain = 0
KST2 130142Z 07005KT 09/M05 A3025 RMK A01 T00941049  RH  036%=      5-min Rain = 0
KST2 130143Z 07005KT 10/M05 A3025 RMK A01 T00951049  RH  036%=      5-min Rain = 0
KST2 130144Z 07005KT 10/M05 A3025 RMK A01 T00951050  RH  036%=      5-min Rain = 0
KST2 130145Z 06005KT 10/M05 A3025 RMK A01 T00951050  RH  036%=      5-min Rain = 0
KST2 130146Z 07005KT 10/M05 A3025 RMK A01 T00961049  RH  036%=      5-min Rain = 0
KST2 130147Z 06005KT 10/M05 A3025 RMK A01 T00961048  RH  036%=      5-min Rain = 0
KST2 130148Z 05006KT 10/M05 A3025 RMK A01 T00971047  RH  036%=      5-min Rain = 0
KST2 130149Z 05006KT 10/M05 A3025 RMK A01 T00971048  RH  036%=      5-min Rain = 0
KST2 130150Z 06006KT 10/M05 A3025 RMK A01 T00971046  RH  036%=      5-min Rain = 0
KST2 130151Z 06006KT 10/M05 A3025 RMK A01 T00981046  RH  036%=      5-min Rain = 0
KST2 130152Z 07005KT 10/M05 A3025 RMK A01 T00981047  RH  036%=      5-min Rain = 0
KST2 130153Z 06005KT 10/M05 A3025 RMK A01 T00981047  RH  036%=      5-min Rain = 0
KST2 130154Z 07005KT 10/M05 A3025 RMK A01 T00981048  RH  036%=      5-min Rain = 0
KST2 130155Z 07005KT 10/M05 A3025 RMK A01 T00971048  RH  036%=      5-min Rain = 0
KST2 130156Z 06005KT 10/M05 A3025 RMK A01 T00971048  RH  036%=      5-min Rain = 0
KST2 130157Z 07005KT 10/M05 A3025 RMK A01 T00961047  RH  036%=      5-min Rain = 0
KST2 130158Z 07006KT 10/M05 A3025 RMK A01 T00971047  RH  036%=      5-min Rain = 0
KST2 130159Z 07005KT 10/M05 A3025 RMK A01 T00961048  RH  036%=      5-min Rain = 0
KST2 130200Z 07006KT 10/M05 A3026 RMK A01 T00951048  RH  036%=      5-min Rain = 0
KST2 130201Z 07006KT 09/M05 A3026 RMK A01 T00941049  RH  036%=      5-min Rain = 0
KST2 130202Z 07006KT 09/M05 A3026 RMK A01 T00941049  RH  036%=      5-min Rain = 0
KST2 130203Z 07006KT 09/M05 A3026 RMK A01 T00931049  RH  036%=      5-min Rain = 0
KST2 130204Z 07005KT 09/M05 A3026 RMK A01 T00931048  RH  036%=      5-min Rain = 0
KST2 130205Z 07005KT 09/M05 A3026 RMK A01 T00931049  RH  036%=      5-min Rain = 0
KST2 130206Z 08005KT 09/M05 A3026 RMK A01 T00931049  RH  036%=      5-min Rain = 0
KST2 130207Z 08006KT 09/M05 A3026 RMK A01 T00931048  RH  037%=      5-min Rain = 0
KST2 130208Z 08006KT 09/M05 A3026 RMK A01 T00941047  RH  037%=      5-min Rain = 0
KST2 130209Z 07006KT 09/M05 A3026 RMK A01 T00941047  RH  037%=      5-min Rain = 0
KST2 130210Z 07006KT 10/M05 A3026 RMK A01 T00951047  RH  036%=      5-min Rain = 0
KST2 130211Z 08006KT 10/M05 A3026 RMK A01 T00951047  RH  036%=      5-min Rain = 0
KST2 130212Z 08006KT 10/M05 A3026 RMK A01 T00951048  RH  036%=      5-min Rain = 0
KST2 130213Z 07006KT 09/M05 A3026 RMK A01 T00941048  RH  036%=      5-min Rain = 0
KST2 130214Z 07006KT 09/M05 A3026 RMK A01 T00931048  RH  036%=      5-min Rain = 0
KST2 130215Z 07007KT 09/M05 A3026 RMK A01 T00921048  RH  037%=      5-min Rain = 0
KST2 130216Z 07006KT 09/M05 A3026 RMK A01 T00921047  RH  037%=      5-min Rain = 0
KST2 130217Z 07006KT 09/M05 A3026 RMK A01 T00931047  RH  037%=      5-min Rain = 0
KST2 130218Z 07007KT 09/M05 A3026 RMK A01 T00931047  RH  037%=      5-min Rain = 0
KST2 130219Z 07006KT 09/M05 A3026 RMK A01 T00931048  RH  037%=      5-min Rain = 0
KST2 130220Z 07006KT 09/M05 A3026 RMK A01 T00921049  RH  037%=      5-min Rain = 0
KST2 130221Z 07006KT 09/M05 A3026 RMK A01 T00911049  RH  037%=      5-min Rain = 0
KST2 130222Z 07006KT 09/M05 A3026 RMK A01 T00901049  RH  037%=      5-min Rain = 0
KST2 130223Z 07006KT 09/M05 A3026 RMK A01 T00891050  RH  037%=      5-min Rain = 0
KST2 130224Z 07005KT 09/M05 A3026 RMK A01 T00871051  RH  037%=      5-min Rain = 0
KST2 130225Z 08006KT 09/M05 A3026 RMK A01 T00861050  RH  038%=      5-min Rain = 0
KST2 130226Z 07006KT 09/M05 A3026 RMK A01 T00861049  RH  038%=      5-min Rain = 0
KST2 130227Z 07006KT 09/M05 A3026 RMK A01 T00871048  RH  038%=      5-min Rain = 0
KST2 130228Z 06006KT 09/M05 A3026 RMK A01 T00881048  RH  038%=      5-min Rain = 0
KST2 130229Z 07006KT 09/M05 A3026 RMK A01 T00891048  RH  038%=      5-min Rain = 0
KST2 130230Z 06006KT 09/M05 A3026 RMK A01 T00891049  RH  038%=      5-min Rain = 0
KST2 130231Z 06006KT 09/M05 A3026 RMK A01 T00891048  RH  038%=      5-min Rain = 0
KST2 130232Z 07007KT 09/M05 A3026 RMK A01 T00891048  RH  038%=      5-min Rain = 0
KST2 130233Z 06006KT 09/M05 A3026 RMK A01 T00881049  RH  038%=      5-min Rain = 0
KST2 130234Z 06005KT 09/M05 A3026 RMK A01 T00871048  RH  038%=      5-min Rain = 0
KST2 130235Z 06005KT 09/M05 A3026 RMK A01 T00881047  RH  038%=      5-min Rain = 0
KST2 130236Z 07006KT 09/M05 A3026 RMK A01 T00891046  RH  038%=      5-min Rain = 0
KST2 130237Z 07006KT 09/M05 A3026 RMK A01 T00891047  RH  038%=      5-min Rain = 0
KST2 130238Z 07005KT 09/M05 A3026 RMK A01 T00881048  RH  038%=      5-min Rain = 0
KST2 130239Z 07005KT 09/M05 A3026 RMK A01 T00881047  RH  038%=      5-min Rain = 0
KST2 130240Z 07006KT 09/M05 A3026 RMK A01 T00871048  RH  038%=      5-min Rain = 0
KST2 130241Z 07006KT 09/M05 A3026 RMK A01 T00871047  RH  038%=      5-min Rain = 0
KST2 130242Z 07006KT 09/M05 A3026 RMK A01 T00861047  RH  039%=      5-min Rain = 0
KST2 130243Z 06006KT 09/M05 A3026 RMK A01 T00861046  RH  039%=      5-min Rain = 0
KST2 130244Z 07005KT 09/M05 A3026 RMK A01 T00871047  RH  039%=      5-min Rain = 0
KST2 130245Z 06005KT 09/M05 A3026 RMK A01 T00861048  RH  039%=      5-min Rain = 0
KST2 130246Z 07005KT 09/M05 A3026 RMK A01 T00851048  RH  039%=      5-min Rain = 0
KST2 130247Z 07005KT 08/M05 A3026 RMK A01 T00841048  RH  039%=      5-min Rain = 0
KST2 130248Z 07005KT 08/M05 A3026 RMK A01 T00841047  RH  039%=      5-min Rain = 0
KST2 130249Z 07005KT 09/M05 A3026 RMK A01 T00851046  RH  039%=      5-min Rain = 0
KST2 130250Z 07006KT 09/M05 A3026 RMK A01 T00861046  RH  039%=      5-min Rain = 0
KST2 130251Z 07005KT 09/M05 A3026 RMK A01 T00871046  RH  039%=      5-min Rain = 0
KST2 130252Z 07005KT 09/M05 A3026 RMK A01 T00871046  RH  039%=      5-min Rain = 0
KST2 130253Z 07005KT 09/M05 A3026 RMK A01 T00871045  RH  039%=      5-min Rain = 0
KST2 130254Z 06005KT 09/M05 A3026 RMK A01 T00871045  RH  039%=      5-min Rain = 0
KST2 130255Z 06005KT 09/M05 A3026 RMK A01 T00871046  RH  039%=      5-min Rain = 0
KST2 130256Z 06005KT 09/M05 A3026 RMK A01 T00871046  RH  038%=      5-min Rain = 0
KST2 130257Z 06006KT 09/M05 A3026 RMK A01 T00861047  RH  039%=      5-min Rain = 0
KST2 130258Z 06006KT 09/M05 A3026 RMK A01 T00861047  RH  039%=      5-min Rain = 0
KST2 130259Z 06006KT 09/M05 A3026 RMK A01 T00851048  RH  039%=      5-min Rain = 0
KST2 130300Z 06005KT 09/M05 A3026 RMK A01 T00851047  RH  039%=      5-min Rain = 0
KST2 130301Z 05005KT 08/M05 A3026 RMK A01 T00841047  RH  039%=      5-min Rain = 0
KST2 130302Z 05005KT 08/M05 A3026 RMK A01 T00831047  RH  039%=      5-min Rain = 0
KST2 130303Z 06005KT 08/M05 A3027 RMK A01 T00821047  RH  040%=      5-min Rain = 0
KST2 130304Z 06005KT 08/M05 A3027 RMK A01 T00811047  RH  040%=      5-min Rain = 0
KST2 130305Z 06005KT 08/M05 A3027 RMK A01 T00801046  RH  041%=      5-min Rain = 0
KST2 130306Z 05005KT 08/M05 A3027 RMK A01 T00801045  RH  041%=      5-min Rain = 0
KST2 130307Z 05004KT 08/M04 A3027 RMK A01 T00791044  RH  041%=      5-min Rain = 0
KST2 130308Z 05004KT 08/M04 A3027 RMK A01 T00791044  RH  042%=      5-min Rain = 0
KST2 130309Z 04004KT 08/M04 A3027 RMK A01 T00781044  RH  042%=      5-min Rain = 0
KST2 130310Z 04005KT 08/M04 A3027 RMK A01 T00771044  RH  042%=      5-min Rain = 0
KST2 130311Z 04005KT 08/M04 A3027 RMK A01 T00761044  RH  042%=      5-min Rain = 0
KST2 130312Z 03005KT 08/M04 A3027 RMK A01 T00761044  RH  042%=      5-min Rain = 0
KST2 130313Z 04005KT 08/M05 A3027 RMK A01 T00761045  RH  042%=      5-min Rain = 0
KST2 130314Z 04005KT 08/M05 A3027 RMK A01 T00751045  RH  042%=      5-min Rain = 0
KST2 130315Z 04005KT 07/M05 A3027 RMK A01 T00731048  RH  042%=      5-min Rain = 0
KST2 130316Z 04005KT 07/M05 A3027 RMK A01 T00721050  RH  041%=      5-min Rain = 0
KST2 130317Z 04005KT 07/M05 A3027 RMK A01 T00711051  RH  041%=      5-min Rain = 0
KST2 130318Z 04005KT 07/M05 A3027 RMK A01 T00711050  RH  042%=      5-min Rain = 0
KST2 130319Z 04005KT 07/M05 A3027 RMK A01 T00711050  RH  042%=      5-min Rain = 0
KST2 130320Z 04005KT 07/M05 A3027 RMK A01 T00711050  RH  042%=      5-min Rain = 0
KST2 130321Z 04005KT 07/M05 A3027 RMK A01 T00711050  RH  042%=      5-min Rain = 0
KST2 130322Z 04006KT 07/M05 A3027 RMK A01 T00701050  RH  042%=      5-min Rain = 0
KST2 130323Z 04006KT 07/M05 A3027 RMK A01 T00701050  RH  042%=      5-min Rain = 0
KST2 130324Z 04006KT 07/M05 A3027 RMK A01 T00701049  RH  042%=      5-min Rain = 0
KST2 130325Z 05006KT 07/M05 A3027 RMK A01 T00701049  RH  042%=      5-min Rain = 0
KST2 130326Z 05005KT 07/M05 A3027 RMK A01 T00711048  RH  042%=      5-min Rain = 0
KST2 130327Z 05005KT 07/M05 A3027 RMK A01 T00711048  RH  042%=      5-min Rain = 0
KST2 130328Z 05005KT 07/M05 A3027 RMK A01 T00711048  RH  042%=      5-min Rain = 0
KST2 130329Z 05005KT 07/M05 A3027 RMK A01 T00721047  RH  042%=      5-min Rain = 0
KST2 130330Z 05005KT 07/M05 A3027 RMK A01 T00731047  RH  042%=      5-min Rain = 0
KST2 130331Z 05005KT 07/M05 A3027 RMK A01 T00741046  RH  042%=      5-min Rain = 0
KST2 130332Z 05005KT 07/M05 A3027 RMK A01 T00741045  RH  042%=      5-min Rain = 0
KST2 130333Z 05005KT 08/M05 A3027 RMK A01 T00751045  RH  043%=      5-min Rain = 0
KST2 130334Z 06005KT 08/M04 A3027 RMK A01 T00751044  RH  043%=      5-min Rain = 0
KST2 130335Z 06006KT 08/M04 A3027 RMK A01 T00751044  RH  043%=      5-min Rain = 0
KST2 130336Z 06006KT 08/M04 A3027 RMK A01 T00751043  RH  043%=      5-min Rain = 0
KST2 130337Z 06005KT 08/M04 A3027 RMK A01 T00751043  RH  043%=      5-min Rain = 0
KST2 130338Z 06005KT 08/M04 A3027 RMK A01 T00751043  RH  043%=      5-min Rain = 0
KST2 130339Z 06005KT 08/M04 A3027 RMK A01 T00761043  RH  043%=      5-min Rain = 0
KST2 130340Z 05005KT 08/M04 A3027 RMK A01 T00761043  RH  043%=      5-min Rain = 0
KST2 130341Z 05005KT 08/M04 A3027 RMK A01 T00761043  RH  043%=      5-min Rain = 0
KST2 130342Z 05005KT 08/M04 A3027 RMK A01 T00761044  RH  042%=      5-min Rain = 0
KST2 130343Z 05005KT 08/M04 A3027 RMK A01 T00771044  RH  042%=      5-min Rain = 0
KST2 130344Z 06005KT 08/M04 A3027 RMK A01 T00771044  RH  042%=      5-min Rain = 0
KST2 130345Z 06005KT 08/M04 A3027 RMK A01 T00771044  RH  042%=      5-min Rain = 0
KST2 130346Z 06005KT 08/M04 A3027 RMK A01 T00771044  RH  042%=      5-min Rain = 0
KST2 130347Z 06005KT 08/M05 A3027 RMK A01 T00771045  RH  042%=      5-min Rain = 0
KST2 130348Z 06005KT 08/M05 A3027 RMK A01 T00771045  RH  042%=      5-min Rain = 0
KST2 130349Z 06005KT 08/M05 A3028 RMK A01 T00771045  RH  042%=      5-min Rain = 0
KST2 130350Z 06004KT 08/M05 A3028 RMK A01 T00781045  RH  042%=      5-min Rain = 0
KST2 130351Z 06004KT 08/M05 A3028 RMK A01 T00781045  RH  041%=      5-min Rain = 0
KST2 130352Z 06004KT 08/M05 A3028 RMK A01 T00791045  RH  041%=      5-min Rain = 0
KST2 130353Z 06004KT 08/M05 A3028 RMK A01 T00791045  RH  041%=      5-min Rain = 0
KST2 130354Z 06005KT 08/M05 A3028 RMK A01 T00791045  RH  041%=      5-min Rain = 0
KST2 130355Z 06005KT 08/M05 A3028 RMK A01 T00791045  RH  041%=      5-min Rain = 0
KST2 130356Z 06005KT 08/M05 A3028 RMK A01 T00801045  RH  041%=      5-min Rain = 0
KST2 130357Z 06005KT 08/M05 A3028 RMK A01 T00801045  RH  041%=      5-min Rain = 0
KST2 130358Z 06005KT 08/M05 A3028 RMK A01 T00791045  RH  041%=      5-min Rain = 0
KST2 130359Z 06005KT 08/M05 A3028 RMK A01 T00791045  RH  041%=      5-min Rain = 0
KST2 130400Z 06005KT 08/M05 A3028 RMK A01 T00791045  RH  041%=      5-min Rain = 0
KST2 130401Z 05005KT 08/M05 A3028 RMK A01 T00781046  RH  041%=      5-min Rain = 0
KST2 130402Z 05005KT 08/M05 A3028 RMK A01 T00761047  RH  041%=      5-min Rain = 0
KST2 130403Z 05005KT 07/M05 A3028 RMK A01 T00741048  RH  042%=      5-min Rain = 0
KST2 130404Z 05005KT 07/M05 A3028 RMK A01 T00731048  RH  042%=      5-min Rain = 0
KST2 130405Z 05005KT 07/M05 A3028 RMK A01 T00721048  RH  042%=      5-min Rain = 0
KST2 130406Z 05005KT 07/M05 A3028 RMK A01 T00711048  RH  042%=      5-min Rain = 0
KST2 130407Z 06005KT 07/M05 A3028 RMK A01 T00711048  RH  043%=      5-min Rain = 0
KST2 130408Z 06005KT 07/M05 A3028 RMK A01 T00701048  RH  043%=      5-min Rain = 0
KST2 130409Z 06005KT 07/M05 A3028 RMK A01 T00701048  RH  043%=      5-min Rain = 0
KST2 130410Z 06005KT 07/M05 A3028 RMK A01 T00691048  RH  043%=      5-min Rain = 0
KST2 130411Z 06005KT 07/M05 A3028 RMK A01 T00681049  RH  043%=      5-min Rain = 0
KST2 130412Z 06005KT 07/M05 A3028 RMK A01 T00681049  RH  043%=      5-min Rain = 0
KST2 130413Z 06006KT 07/M05 A3028 RMK A01 T00671049  RH  043%=      5-min Rain = 0
KST2 130414Z 06006KT 07/M05 A3028 RMK A01 T00671049  RH  043%=      5-min Rain = 0
KST2 130415Z 07005KT 07/M05 A3028 RMK A01 T00661049  RH  044%=      5-min Rain = 0
KST2 130416Z 07005KT 07/M05 A3028 RMK A01 T00651050  RH  044%=      5-min Rain = 0
KST2 130417Z 07005KT 06/M05 A3028 RMK A01 T00641050  RH  044%=      5-min Rain = 0
KST2 130418Z 07005KT 06/M05 A3028 RMK A01 T00631050  RH  044%=      5-min Rain = 0
KST2 130419Z 07005KT 06/M05 A3028 RMK A01 T00621050  RH  044%=      5-min Rain = 0
KST2 130420Z 07005KT 06/M05 A3028 RMK A01 T00621050  RH  045%=      5-min Rain = 0
KST2 130421Z 07005KT 06/M05 A3028 RMK A01 T00621049  RH  045%=      5-min Rain = 0
KST2 130422Z 07005KT 06/M05 A3028 RMK A01 T00621049  RH  045%=      5-min Rain = 0
KST2 130423Z 07005KT 06/M05 A3028 RMK A01 T00621049  RH  045%=      5-min Rain = 0
KST2 130424Z 07005KT 06/M05 A3028 RMK A01 T00631049  RH  045%=      5-min Rain = 0
KST2 130425Z 07005KT 06/M05 A3028 RMK A01 T00631049  RH  045%=      5-min Rain = 0
KST2 130426Z 07005KT 06/M05 A3028 RMK A01 T00631049  RH  045%=      5-min Rain = 0
KST2 130427Z 07005KT 06/M05 A3028 RMK A01 T00631049  RH  045%=      5-min Rain = 0
KST2 130428Z 08005KT 06/M05 A3028 RMK A01 T00621049  RH  045%=      5-min Rain = 0
KST2 130429Z 08005KT 06/M05 A3028 RMK A01 T00611050  RH  045%=      5-min Rain = 0
KST2 130430Z 08005KT 06/M05 A3028 RMK A01 T00611050  RH  045%=      5-min Rain = 0
KST2 130431Z 08005KT 06/M05 A3028 RMK A01 T00601051  RH  045%=      5-min Rain = 0
KST2 130432Z 08005KT 06/M05 A3028 RMK A01 T00591051  RH  045%=      5-min Rain = 0
KST2 130433Z 08005KT 06/M05 A3028 RMK A01 T00581051  RH  045%=      5-min Rain = 0
KST2 130434Z 08005KT 06/M05 A3028 RMK A01 T00581051  RH  046%=      5-min Rain = 0
KST2 130435Z 08005KT 06/M05 A3028 RMK A01 T00571051  RH  046%=      5-min Rain = 0
KST2 130436Z 08005KT 06/M05 A3028 RMK A01 T00571051  RH  046%=      5-min Rain = 0
KST2 130437Z 08005KT 06/M05 A3028 RMK A01 T00571051  RH  046%=      5-min Rain = 0
KST2 130438Z 08004KT 06/M05 A3028 RMK A01 T00571051  RH  046%=      5-min Rain = 0
KST2 130439Z 08004KT 06/M05 A3028 RMK A01 T00571050  RH  046%=      5-min Rain = 0
KST2 130440Z 07004KT 06/M05 A3028 RMK A01 T00561051  RH  046%=      5-min Rain = 0
KST2 130441Z 08004KT 06/M05 A3028 RMK A01 T00561049  RH  047%=      5-min Rain = 0
KST2 130442Z 08004KT 06/M05 A3028 RMK A01 T00561048  RH  047%=      5-min Rain = 0
KST2 130443Z 08003KT 06/M05 A3028 RMK A01 T00551049  RH  047%=      5-min Rain = 0
KST2 130444Z 08003KT 06/M05 A3028 RMK A01 T00551049  RH  047%=      5-min Rain = 0
KST2 130445Z 08003KT 06/M05 A3028 RMK A01 T00551049  RH  047%=      5-min Rain = 0
KST2 130446Z 08003KT 06/M05 A3028 RMK A01 T00551050  RH  047%=      5-min Rain = 0
KST2 130447Z 07003KT 05/M05 A3028 RMK A01 T00541049  RH  047%=      5-min Rain = 0
KST2 130448Z 08003KT 06/M05 A3028 RMK A01 T00551048  RH  047%=      5-min Rain = 0
KST2 130449Z 08003KT 06/M05 A3028 RMK A01 T00561048  RH  047%=      5-min Rain = 0
KST2 130450Z 08002KT 06/M05 A3028 RMK A01 T00561047  RH  047%=      5-min Rain = 0
KST2 130451Z 08002KT 06/M05 A3028 RMK A01 T00561046  RH  048%=      5-min Rain = 0
KST2 130452Z 09002KT 06/M05 A3028 RMK A01 T00561048  RH  047%=      5-min Rain = 0
KST2 130453Z 09002KT 06/M05 A3028 RMK A01 T00561050  RH  046%=      5-min Rain = 0
KST2 130454Z 09003KT 06/M05 A3028 RMK A01 T00561049  RH  047%=      5-min Rain = 0
KST2 130455Z 09003KT 06/M05 A3028 RMK A01 T00551049  RH  047%=      5-min Rain = 0
KST2 130456Z 09002KT 06/M05 A3028 RMK A01 T00551049  RH  047%=      5-min Rain = 0
KST2 130457Z 09003KT 06/M05 A3028 RMK A01 T00551048  RH  048%=      5-min Rain = 0
KST2 130458Z 09003KT 06/M05 A3028 RMK A01 T00551047  RH  048%=      5-min Rain = 0
KST2 130459Z 09003KT 06/M05 A3028 RMK A01 T00551046  RH  048%=      5-min Rain = 0

Page generated in 0.0719 seconds.